Time,TemperatureF,DewpointF,PressureIn,WindDirection,WindDirectionDegrees,WindSpeedMPH,WindSpeedGustMPH,Humidity,HourlyPrecipIn,Conditions,Clouds,dailyrainin,SoftwareType,DateUTC
2013-02-22 00:02:00,67.0,60.0,29.78,East,90,5.0,5.0,79,0.00,,,0.00,TxWx,2013-02-22 06:02:00,
2013-02-22 00:04:00,67.0,60.0,29.78,East,90,6.0,6.0,78,0.00,,,0.00,TxWx,2013-02-22 06:04:00,
2013-02-22 00:06:00,67.0,60.0,29.79,ESE,112,7.0,7.0,78,0.00,,,0.00,TxWx,2013-02-22 06:06:00,
2013-02-22 00:08:00,67.0,60.0,29.79,ESE,112,6.0,6.0,78,0.00,,,0.00,TxWx,2013-02-22 06:08:00,
2013-02-22 00:10:00,67.0,60.0,29.79,East,90,3.0,3.0,78,0.00,,,0.00,TxWx,2013-02-22 06:10:00,
2013-02-22 00:11:00,67.0,60.0,29.79,ENE,67,3.0,3.0,78,0.00,,,0.00,TxWx,2013-02-22 06:11:00,
2013-02-22 00:13:00,67.0,60.0,29.79,ENE,67,5.0,7.0,77,0.00,,,0.00,TxWx,2013-02-22 06:13:00,
2013-02-22 00:15:00,67.0,60.0,29.79,East,90,6.0,8.0,77,0.00,,,0.00,TxWx,2013-02-22 06:15:00,
2013-02-22 00:16:00,67.0,60.0,29.78,East,90,5.0,5.0,77,0.00,,,0.00,TxWx,2013-02-22 06:16:00,
2013-02-22 00:19:00,67.0,59.0,29.78,ESE,112,8.0,8.0,77,0.00,,,0.00,TxWx,2013-02-22 06:19:00,
2013-02-22 00:21:00,67.0,59.0,29.79,East,90,9.0,9.0,76,0.00,,,0.00,TxWx,2013-02-22 06:21:00,
2013-02-22 00:24:00,67.0,59.0,29.79,SE,135,7.0,7.0,75,0.00,,,0.00,TxWx,2013-02-22 06:24:00,
2013-02-22 00:25:00,67.0,59.0,29.79,ESE,112,6.0,6.0,75,0.00,,,0.00,TxWx,2013-02-22 06:25:00,
2013-02-22 00:26:00,67.0,59.0,29.79,East,90,6.0,6.0,75,0.00,,,0.00,TxWx,2013-02-22 06:26:00,
2013-02-22 00:29:00,67.0,59.0,29.79,ESE,112,7.0,7.0,75,0.00,,,0.00,TxWx,2013-02-22 06:29:00,
2013-02-22 00:30:00,67.0,59.0,29.79,ESE,112,5.0,5.0,75,0.00,,,0.00,TxWx,2013-02-22 06:30:00,
2013-02-22 00:33:00,67.0,59.0,29.79,East,90,5.0,5.0,75,0.00,,,0.00,TxWx,2013-02-22 06:33:00,
2013-02-22 00:35:00,67.0,59.0,29.79,East,90,7.0,7.0,76,0.00,,,0.00,TxWx,2013-02-22 06:35:00,
2013-02-22 00:36:00,67.0,59.0,29.79,ENE,67,5.0,5.0,76,0.00,,,0.00,TxWx,2013-02-22 06:36:00,
2013-02-22 00:38:00,67.0,59.0,29.79,East,90,4.0,5.0,76,0.00,,,0.00,TxWx,2013-02-22 06:38:00,
2013-02-22 00:42:00,67.0,59.0,29.79,East,90,5.0,5.0,77,0.00,,,0.00,TxWx,2013-02-22 06:42:00,
2013-02-22 00:43:00,67.0,59.0,29.79,NE,45,4.0,5.0,77,0.00,,,0.00,TxWx,2013-02-22 06:43:00,
2013-02-22 00:44:00,67.0,60.0,29.79,East,90,5.0,5.0,77,0.00,,,0.00,TxWx,2013-02-22 06:44:00,
2013-02-22 00:47:00,67.0,60.0,29.78,East,90,5.0,5.0,77,0.00,,,0.00,TxWx,2013-02-22 06:47:00,
2013-02-22 00:48:00,66.0,59.0,29.79,ENE,67,6.0,6.0,77,0.00,,,0.00,TxWx,2013-02-22 06:48:00,
2013-02-22 00:50:00,67.0,60.0,29.79,ENE,67,4.0,4.0,77,0.00,,,0.00,TxWx,2013-02-22 06:50:00,
2013-02-22 00:53:00,66.0,59.0,29.78,ENE,67,5.0,6.0,78,0.00,,,0.00,TxWx,2013-02-22 06:53:00,
2013-02-22 00:54:00,66.0,59.0,29.78,ENE,67,4.0,4.0,78,0.00,,,0.00,TxWx,2013-02-22 06:54:00,
2013-02-22 00:55:00,66.0,59.0,29.78,ENE,67,5.0,6.0,78,0.00,,,0.00,TxWx,2013-02-22 06:55:00,
2013-02-22 00:57:00,66.0,59.0,29.78,ENE,67,5.0,5.0,78,0.00,,,0.00,TxWx,2013-02-22 06:57:00,
2013-02-22 00:58:00,66.0,59.0,29.78,ENE,67,5.0,5.0,78,0.00,,,0.00,TxWx,2013-02-22 06:58:00,
2013-02-22 01:00:00,66.0,59.0,29.78,ENE,67,3.0,4.0,78,0.00,,,0.00,TxWx,2013-02-22 07:00:00,
2013-02-22 01:02:00,66.0,59.0,29.78,ESE,112,3.0,3.0,78,0.00,,,0.00,TxWx,2013-02-22 07:02:00,
2013-02-22 01:04:00,66.0,59.0,29.78,ENE,67,5.0,5.0,78,0.00,,,0.00,TxWx,2013-02-22 07:04:00,
2013-02-22 01:06:00,66.0,59.0,29.78,ENE,67,7.0,8.0,78,0.00,,,0.00,TxWx,2013-02-22 07:06:00,
2013-02-22 01:08:00,66.0,59.0,29.77,NE,45,5.0,6.0,79,0.00,,,0.00,TxWx,2013-02-22 07:08:00,
2013-02-22 01:11:00,66.0,59.0,29.77,ESE,112,5.0,5.0,79,0.00,,,0.00,TxWx,2013-02-22 07:11:00,
2013-02-22 01:13:00,66.0,59.0,29.77,East,90,5.0,5.0,79,0.00,,,0.00,TxWx,2013-02-22 07:13:00,
2013-02-22 01:14:00,66.0,59.0,29.77,ESE,112,7.0,7.0,79,0.00,,,0.00,TxWx,2013-02-22 07:14:00,
2013-02-22 01:16:00,66.0,59.0,29.77,East,90,6.0,7.0,79,0.00,,,0.00,TxWx,2013-02-22 07:16:00,
2013-02-22 01:17:00,66.0,59.0,29.77,East,90,6.0,9.0,79,0.00,,,0.00,TxWx,2013-02-22 07:17:00,
2013-02-22 01:18:00,67.0,60.0,29.77,ENE,67,5.0,5.0,79,0.00,,,0.00,TxWx,2013-02-22 07:18:00,
2013-02-22 01:19:00,67.0,60.0,29.77,East,90,10.0,10.0,79,0.00,,,0.00,TxWx,2013-02-22 07:19:00,
2013-02-22 01:23:00,67.0,60.0,29.78,ESE,112,6.0,6.0,79,0.00,,,0.00,TxWx,2013-02-22 07:23:00,
2013-02-22 01:24:00,67.0,60.0,29.78,ESE,112,8.0,8.0,79,0.00,,,0.00,TxWx,2013-02-22 07:24:00,
2013-02-22 01:25:00,67.0,60.0,29.78,East,90,8.0,8.0,79,0.00,,,0.00,TxWx,2013-02-22 07:25:00,
2013-02-22 01:27:00,67.0,60.0,29.78,East,90,6.0,6.0,79,0.00,,,0.00,TxWx,2013-02-22 07:27:00,
2013-02-22 01:28:00,67.0,60.0,29.78,ESE,112,5.0,5.0,79,0.00,,,0.00,TxWx,2013-02-22 07:28:00,
2013-02-22 01:30:00,67.0,60.0,29.78,ESE,112,5.0,5.0,80,0.00,,,0.00,TxWx,2013-02-22 07:30:00,
2013-02-22 01:33:00,67.0,60.0,29.78,East,90,3.0,3.0,80,0.00,,,0.00,TxWx,2013-02-22 07:33:00,
2013-02-22 01:36:00,67.0,60.0,29.79,ENE,67,4.0,4.0,80,0.00,,,0.00,TxWx,2013-02-22 07:36:00,
2013-02-22 01:38:00,67.0,61.0,29.78,ENE,67,2.0,3.0,80,0.00,,,0.00,TxWx,2013-02-22 07:38:00,
2013-02-22 01:39:00,67.0,61.0,29.79,NNE,22,1.0,1.0,80,0.00,,,0.00,TxWx,2013-02-22 07:39:00,
2013-02-22 01:42:00,66.0,60.0,29.79,East,90,3.0,3.0,81,0.00,,,0.00,TxWx,2013-02-22 07:42:00,
2013-02-22 01:43:00,66.0,60.0,29.79,East,90,4.0,5.0,81,0.00,,,0.00,TxWx,2013-02-22 07:43:00,
2013-02-22 01:44:00,66.0,60.0,29.79,East,90,3.0,3.0,81,0.00,,,0.00,TxWx,2013-02-22 07:44:00,
2013-02-22 01:46:00,66.0,60.0,29.80,ENE,67,3.0,3.0,81,0.00,,,0.00,TxWx,2013-02-22 07:46:00,
2013-02-22 01:47:00,66.0,60.0,29.80,ENE,67,2.0,2.0,81,0.00,,,0.00,TxWx,2013-02-22 07:47:00,
2013-02-22 01:49:00,66.0,60.0,29.80,ENE,67,3.0,3.0,81,0.00,,,0.00,TxWx,2013-02-22 07:49:00,
2013-02-22 01:51:00,66.0,60.0,29.81,East,90,3.0,3.0,81,0.00,,,0.00,TxWx,2013-02-22 07:51:00,
2013-02-22 01:53:00,66.0,60.0,29.80,ESE,112,2.0,3.0,81,0.00,,,0.00,TxWx,2013-02-22 07:53:00,
2013-02-22 01:55:00,66.0,60.0,29.80,ENE,67,3.0,3.0,81,0.00,,,0.00,TxWx,2013-02-22 07:55:00,
2013-02-22 01:57:00,66.0,60.0,29.80,ENE,67,3.0,3.0,81,0.00,,,0.00,TxWx,2013-02-22 07:57:00,
2013-02-22 01:58:00,66.0,60.0,29.80,ENE,67,2.0,2.0,80,0.00,,,0.00,TxWx,2013-02-22 07:58:00,
2013-02-22 01:59:00,66.0,60.0,29.80,ENE,67,3.0,3.0,80,0.00,,,0.00,TxWx,2013-02-22 07:59:00,
2013-02-22 02:00:00,66.0,60.0,29.80,East,90,3.0,3.0,80,0.00,,,0.00,TxWx,2013-02-22 08:00:00,
2013-02-22 02:02:00,66.0,60.0,29.80,East,90,1.0,2.0,80,0.00,,,0.00,TxWx,2013-02-22 08:02:00,
2013-02-22 02:04:00,66.0,60.0,29.80,ENE,67,2.0,2.0,80,0.00,,,0.00,TxWx,2013-02-22 08:04:00,
2013-02-22 02:06:00,66.0,60.0,29.80,ENE,67,3.0,3.0,80,0.00,,,0.00,TxWx,2013-02-22 08:06:00,
2013-02-22 02:07:00,66.0,60.0,29.80,East,90,3.0,3.0,80,0.00,,,0.00,TxWx,2013-02-22 08:07:00,
2013-02-22 02:08:00,66.0,60.0,29.80,East,90,5.0,5.0,80,0.00,,,0.00,TxWx,2013-02-22 08:08:00,
2013-02-22 02:09:00,66.0,60.0,29.80,East,90,4.0,4.0,80,0.00,,,0.00,TxWx,2013-02-22 08:09:00,
2013-02-22 02:13:00,66.0,60.0,29.80,NE,45,4.0,5.0,80,0.00,,,0.00,TxWx,2013-02-22 08:13:00,
2013-02-22 02:14:00,66.0,60.0,29.81,NE,45,3.0,5.0,80,0.00,,,0.00,TxWx,2013-02-22 08:14:00,
2013-02-22 02:15:00,66.0,60.0,29.80,NE,45,3.0,3.0,80,0.00,,,0.00,TxWx,2013-02-22 08:15:00,
2013-02-22 02:17:00,66.0,60.0,29.81,NE,45,3.0,3.0,81,0.00,,,0.00,TxWx,2013-02-22 08:17:00,
2013-02-22 02:19:00,66.0,60.0,29.81,ENE,67,2.0,2.0,81,0.00,,,0.00,TxWx,2013-02-22 08:19:00,
2013-02-22 02:21:00,66.0,60.0,29.81,ENE,67,5.0,5.0,81,0.00,,,0.00,TxWx,2013-02-22 08:21:00,
2013-02-22 02:24:00,66.0,60.0,29.81,NE,45,3.0,3.0,81,0.00,,,0.00,TxWx,2013-02-22 08:24:00,
2013-02-22 02:25:00,66.0,60.0,29.81,ENE,67,4.0,4.0,81,0.00,,,0.00,TxWx,2013-02-22 08:25:00,
2013-02-22 02:27:00,66.0,60.0,29.81,ENE,67,3.0,3.0,81,0.00,,,0.00,TxWx,2013-02-22 08:27:00,
2013-02-22 02:28:00,66.0,60.0,29.81,NNE,22,3.0,3.0,81,0.00,,,0.00,TxWx,2013-02-22 08:28:00,
2013-02-22 02:30:00,66.0,60.0,29.81,NNE,22,3.0,3.0,81,0.00,,,0.00,TxWx,2013-02-22 08:30:00,
2013-02-22 02:32:00,66.0,60.0,29.80,NE,45,2.0,2.0,81,0.00,,,0.00,TxWx,2013-02-22 08:32:00,
2013-02-22 02:34:00,66.0,60.0,29.80,NE,45,3.0,3.0,81,0.00,,,0.00,TxWx,2013-02-22 08:34:00,
2013-02-22 02:37:00,66.0,60.0,29.80,NE,45,3.0,3.0,81,0.00,,,0.00,TxWx,2013-02-22 08:37:00,
2013-02-22 02:38:00,66.0,60.0,29.80,North,0,5.0,5.0,81,0.00,,,0.00,TxWx,2013-02-22 08:38:00,
2013-02-22 02:41:00,66.0,60.0,29.80,NE,45,3.0,3.0,82,0.00,,,0.00,TxWx,2013-02-22 08:41:00,
2013-02-22 02:42:00,66.0,60.0,29.80,ENE,67,6.0,6.0,82,0.00,,,0.00,TxWx,2013-02-22 08:42:00,
2013-02-22 02:43:00,66.0,60.0,29.80,NE,45,5.0,5.0,82,0.00,,,0.00,TxWx,2013-02-22 08:43:00,
2013-02-22 02:45:00,66.0,60.0,29.80,NE,45,6.0,6.0,82,0.00,,,0.00,TxWx,2013-02-22 08:45:00,
2013-02-22 02:47:00,66.0,60.0,29.80,NE,45,6.0,6.0,81,0.00,,,0.00,TxWx,2013-02-22 08:47:00,
2013-02-22 02:48:00,66.0,60.0,29.80,NE,45,5.0,6.0,81,0.00,,,0.00,TxWx,2013-02-22 08:48:00,
2013-02-22 02:49:00,66.0,60.0,29.80,NNE,22,5.0,5.0,82,0.00,,,0.00,TxWx,2013-02-22 08:49:00,
2013-02-22 02:52:00,66.0,60.0,29.79,NE,45,5.0,6.0,82,0.00,,,0.00,TxWx,2013-02-22 08:52:00,
2013-02-22 02:53:00,66.0,60.0,29.79,NE,45,8.0,8.0,83,0.00,,,0.00,TxWx,2013-02-22 08:53:00,
2013-02-22 02:55:00,66.0,60.0,29.79,NE,45,5.0,6.0,83,0.00,,,0.00,TxWx,2013-02-22 08:55:00,
2013-02-22 02:56:00,66.0,60.0,29.79,NE,45,5.0,5.0,83,0.00,,,0.00,TxWx,2013-02-22 08:56:00,
2013-02-22 02:58:00,65.0,59.0,29.79,NNE,22,9.0,9.0,82,0.00,,,0.00,TxWx,2013-02-22 08:58:00,
2013-02-22 02:59:00,65.0,59.0,29.80,North,0,4.0,4.0,82,0.00,,,0.00,TxWx,2013-02-22 08:59:00,
2013-02-22 03:00:00,65.0,59.0,29.80,North,0,3.0,5.0,82,0.00,,,0.00,TxWx,2013-02-22 09:00:00,
2013-02-22 03:02:00,65.0,59.0,29.79,North,0,5.0,6.0,82,0.00,,,0.00,TxWx,2013-02-22 09:02:00,
2013-02-22 03:04:00,65.0,59.0,29.79,North,0,5.0,6.0,81,0.00,,,0.00,TxWx,2013-02-22 09:04:00,
2013-02-22 03:05:00,65.0,59.0,29.79,North,0,6.0,6.0,81,0.00,,,0.00,TxWx,2013-02-22 09:05:00,
2013-02-22 03:08:00,65.0,59.0,29.79,NNE,22,8.0,9.0,81,0.00,,,0.00,TxWx,2013-02-22 09:08:00,
2013-02-22 03:10:00,65.0,58.0,29.79,North,0,4.0,4.0,80,0.00,,,0.00,TxWx,2013-02-22 09:10:00,
2013-02-22 03:11:00,65.0,58.0,29.79,North,0,4.0,5.0,80,0.00,,,0.00,TxWx,2013-02-22 09:11:00,
2013-02-22 03:15:00,65.0,58.0,29.79,NNE,22,8.0,8.0,79,0.00,,,0.00,TxWx,2013-02-22 09:15:00,
2013-02-22 03:16:00,65.0,58.0,29.78,North,0,11.0,11.0,78,0.00,,,0.00,TxWx,2013-02-22 09:16:00,
2013-02-22 03:17:00,65.0,58.0,29.78,NNW,337,6.0,7.0,78,0.00,,,0.00,TxWx,2013-02-22 09:17:00,
2013-02-22 03:21:00,65.0,58.0,29.79,NE,45,6.0,8.0,78,0.00,,,0.00,TxWx,2013-02-22 09:21:00,
2013-02-22 03:22:00,65.0,58.0,29.79,NNW,337,3.0,3.0,78,0.00,,,0.00,TxWx,2013-02-22 09:22:00,
2013-02-22 03:25:00,65.0,58.0,29.79,NW,315,5.0,6.0,79,0.00,,,0.00,TxWx,2013-02-22 09:25:00,
2013-02-22 03:26:00,65.0,58.0,29.79,NNE,22,3.0,3.0,79,0.00,,,0.00,TxWx,2013-02-22 09:26:00,
2013-02-22 03:28:00,65.0,58.0,29.79,NNE,22,3.0,4.0,79,0.00,,,0.00,TxWx,2013-02-22 09:28:00,
2013-02-22 03:30:00,65.0,58.0,29.79,NNW,337,5.0,6.0,79,0.00,,,0.00,TxWx,2013-02-22 09:30:00,
2013-02-22 03:31:00,65.0,58.0,29.79,WNW,292,5.0,6.0,79,0.00,,,0.00,TxWx,2013-02-22 09:31:00,
2013-02-22 03:33:00,65.0,58.0,29.79,NE,45,7.0,7.0,79,0.00,,,0.00,TxWx,2013-02-22 09:33:00,
2013-02-22 03:35:00,65.0,58.0,29.79,NE,45,5.0,6.0,80,0.00,,,0.00,TxWx,2013-02-22 09:35:00,
2013-02-22 03:36:00,65.0,58.0,29.79,ENE,67,6.0,6.0,80,0.00,,,0.00,TxWx,2013-02-22 09:36:00,
2013-02-22 03:38:00,64.0,58.0,29.78,NNE,22,5.0,6.0,80,0.00,,,0.00,TxWx,2013-02-22 09:38:00,
2013-02-22 03:41:00,64.0,58.0,29.78,NNE,22,7.0,7.0,80,0.00,,,0.00,TxWx,2013-02-22 09:41:00,
2013-02-22 03:42:00,64.0,58.0,29.79,East,90,3.0,5.0,80,0.00,,,0.00,TxWx,2013-02-22 09:42:00,
2013-02-22 03:43:00,64.0,58.0,29.79,NE,45,6.0,6.0,80,0.00,,,0.00,TxWx,2013-02-22 09:43:00,
2013-02-22 03:47:00,64.0,58.0,29.78,NE,45,6.0,7.0,81,0.00,,,0.00,TxWx,2013-02-22 09:47:00,
2013-02-22 03:48:00,64.0,58.0,29.79,NNE,22,8.0,8.0,81,0.00,,,0.00,TxWx,2013-02-22 09:48:00,
2013-02-22 03:49:00,64.0,58.0,29.79,North,0,7.0,7.0,81,0.00,,,0.00,TxWx,2013-02-22 09:49:00,
2013-02-22 03:52:00,64.0,58.0,29.79,NE,45,8.0,8.0,82,0.00,,,0.00,TxWx,2013-02-22 09:52:00,
2013-02-22 03:55:00,64.0,58.0,29.79,NNE,22,8.0,9.0,82,0.00,,,0.00,TxWx,2013-02-22 09:55:00,
2013-02-22 03:56:00,64.0,58.0,29.79,NNE,22,7.0,7.0,82,0.00,,,0.00,TxWx,2013-02-22 09:56:00,
2013-02-22 03:59:00,64.0,58.0,29.79,North,0,6.0,6.0,82,0.00,,,0.00,TxWx,2013-02-22 09:59:00,
2013-02-22 04:00:00,64.0,58.0,29.79,NNE,22,7.0,8.0,82,0.00,,,0.00,TxWx,2013-02-22 10:00:00,
2013-02-22 04:01:00,64.0,58.0,29.79,NE,45,6.0,7.0,82,0.00,,,0.00,TxWx,2013-02-22 10:01:00,
2013-02-22 04:05:00,64.0,58.0,29.79,East,90,4.0,5.0,82,0.00,,,0.00,TxWx,2013-02-22 10:05:00,
2013-02-22 04:06:00,64.0,58.0,29.79,NE,45,7.0,8.0,82,0.00,,,0.00,TxWx,2013-02-22 10:06:00,
2013-02-22 04:07:00,64.0,58.0,29.79,NNE,22,8.0,8.0,82,0.00,,,0.00,TxWx,2013-02-22 10:07:00,
2013-02-22 04:11:00,64.0,59.0,29.79,ENE,67,5.0,6.0,83,0.00,,,0.00,TxWx,2013-02-22 10:11:00,
2013-02-22 04:12:00,64.0,59.0,29.79,NNE,22,9.0,9.0,83,0.00,,,0.00,TxWx,2013-02-22 10:12:00,
2013-02-22 04:17:00,64.0,59.0,29.80,NE,45,7.0,8.0,83,0.00,,,0.00,TxWx,2013-02-22 10:17:00,
2013-02-22 04:18:00,64.0,59.0,29.79,NE,45,6.0,6.0,84,0.00,,,0.00,TxWx,2013-02-22 10:18:00,
2013-02-22 04:23:00,64.0,59.0,29.79,NNE,22,6.0,6.0,84,0.00,,,0.00,TxWx,2013-02-22 10:23:00,
2013-02-22 04:26:00,64.0,59.0,29.79,NNE,22,9.0,9.0,84,0.00,,,0.00,TxWx,2013-02-22 10:26:00,
2013-02-22 04:29:00,64.0,59.0,29.79,NNE,22,8.0,9.0,83,0.00,,,0.00,TxWx,2013-02-22 10:29:00,
2013-02-22 04:31:00,64.0,59.0,29.79,North,0,7.0,7.0,83,0.00,,,0.00,TxWx,2013-02-22 10:31:00,
2013-02-22 04:34:00,64.0,59.0,29.79,ENE,67,4.0,4.0,83,0.00,,,0.00,TxWx,2013-02-22 10:34:00,
2013-02-22 04:38:00,64.0,59.0,29.79,NNE,22,7.0,8.0,83,0.00,,,0.00,TxWx,2013-02-22 10:38:00,
2013-02-22 04:39:00,64.0,59.0,29.79,NE,45,6.0,6.0,83,0.00,,,0.00,TxWx,2013-02-22 10:39:00,
2013-02-22 04:40:00,64.0,59.0,29.79,NE,45,5.0,6.0,83,0.00,,,0.00,TxWx,2013-02-22 10:40:00,
2013-02-22 04:44:00,64.0,59.0,29.79,NNE,22,5.0,6.0,84,0.00,,,0.00,TxWx,2013-02-22 10:44:00,
2013-02-22 04:45:00,64.0,59.0,29.79,North,0,6.0,10.0,84,0.00,,,0.00,TxWx,2013-02-22 10:45:00,
2013-02-22 04:46:00,64.0,59.0,29.79,NE,45,5.0,5.0,84,0.00,,,0.00,TxWx,2013-02-22 10:46:00,
2013-02-22 04:50:00,64.0,59.0,29.79,NE,45,8.0,8.0,83,0.00,,,0.00,TxWx,2013-02-22 10:50:00,
2013-02-22 04:51:00,64.0,59.0,29.79,ENE,67,6.0,9.0,83,0.00,,,0.00,TxWx,2013-02-22 10:51:00,
2013-02-22 04:56:00,64.0,59.0,29.79,ENE,67,8.0,8.0,83,0.00,,,0.00,TxWx,2013-02-22 10:56:00,
2013-02-22 05:01:00,64.0,59.0,29.79,NNE,22,10.0,11.0,83,0.00,,,0.00,TxWx,2013-02-22 11:01:00,
2013-02-22 05:02:00,64.0,59.0,29.79,NE,45,5.0,6.0,84,0.00,,,0.00,TxWx,2013-02-22 11:02:00,
2013-02-22 05:06:00,64.0,59.0,29.80,North,0,8.0,10.0,84,0.00,,,0.00,TxWx,2013-02-22 11:06:00,
2013-02-22 05:08:00,64.0,59.0,29.79,NE,45,8.0,8.0,84,0.00,,,0.00,TxWx,2013-02-22 11:08:00,
2013-02-22 05:12:00,64.0,59.0,29.79,NNE,22,9.0,10.0,84,0.00,,,0.00,TxWx,2013-02-22 11:12:00,
2013-02-22 05:13:00,64.0,59.0,29.79,NE,45,10.0,10.0,84,0.00,,,0.00,TxWx,2013-02-22 11:13:00,
2013-02-22 05:14:00,64.0,59.0,29.79,NE,45,5.0,5.0,84,0.00,,,0.00,TxWx,2013-02-22 11:14:00,
2013-02-22 05:17:00,64.0,59.0,29.79,NE,45,8.0,10.0,84,0.00,,,0.00,TxWx,2013-02-22 11:17:00,
2013-02-22 05:18:00,64.0,59.0,29.79,East,90,10.0,11.0,84,0.00,,,0.00,TxWx,2013-02-22 11:18:00,
2013-02-22 05:21:00,63.0,58.0,29.79,NNE,22,10.0,10.0,83,0.00,,,0.00,TxWx,2013-02-22 11:21:00,
2013-02-22 05:23:00,63.0,58.0,29.79,NE,45,10.0,10.0,84,0.00,,,0.00,TxWx,2013-02-22 11:23:00,
2013-02-22 05:25:00,64.0,59.0,29.79,NE,45,6.0,8.0,84,0.00,,,0.00,TxWx,2013-02-22 11:25:00,
2013-02-22 05:28:00,64.0,59.0,29.79,ENE,67,6.0,6.0,85,0.00,,,0.00,TxWx,2013-02-22 11:28:00,
2013-02-22 05:30:00,64.0,59.0,29.79,East,90,9.0,9.0,85,0.00,,,0.00,TxWx,2013-02-22 11:30:00,
2013-02-22 05:33:00,63.0,58.0,29.80,NE,45,8.0,10.0,85,0.00,,,0.00,TxWx,2013-02-22 11:33:00,
2013-02-22 05:34:00,63.0,58.0,29.80,NNE,22,6.0,6.0,85,0.00,,,0.00,TxWx,2013-02-22 11:34:00,
2013-02-22 05:35:00,64.0,59.0,29.80,ENE,67,6.0,6.0,85,0.00,,,0.00,TxWx,2013-02-22 11:35:00,
2013-02-22 05:39:00,64.0,59.0,29.80,NE,45,8.0,8.0,85,0.00,,,0.00,TxWx,2013-02-22 11:39:00,
2013-02-22 05:40:00,63.0,59.0,29.79,NE,45,3.0,5.0,86,0.00,,,0.00,TxWx,2013-02-22 11:40:00,
2013-02-22 05:41:00,63.0,59.0,29.79,NE,45,8.0,9.0,86,0.00,,,0.00,TxWx,2013-02-22 11:41:00,
2013-02-22 05:44:00,63.0,59.0,29.80,ENE,67,6.0,6.0,86,0.00,,,0.00,TxWx,2013-02-22 11:44:00,
2013-02-22 05:46:00,63.0,59.0,29.80,NE,45,9.0,9.0,86,0.00,,,0.00,TxWx,2013-02-22 11:46:00,
2013-02-22 05:50:00,64.0,60.0,29.80,NE,45,7.0,8.0,87,0.00,,,0.00,TxWx,2013-02-22 11:50:00,
2013-02-22 05:51:00,64.0,60.0,29.81,NNE,22,6.0,6.0,87,0.00,,,0.00,TxWx,2013-02-22 11:51:00,
2013-02-22 05:52:00,64.0,60.0,29.81,NE,45,5.0,6.0,87,0.00,,,0.00,TxWx,2013-02-22 11:52:00,
2013-02-22 05:55:00,64.0,60.0,29.81,NE,45,8.0,10.0,87,0.00,,,0.00,TxWx,2013-02-22 11:55:00,
2013-02-22 05:57:00,64.0,60.0,29.81,NE,45,5.0,6.0,87,0.00,,,0.00,TxWx,2013-02-22 11:57:00,
2013-02-22 05:58:00,64.0,60.0,29.81,NNE,22,10.0,10.0,87,0.00,,,0.00,TxWx,2013-02-22 11:58:00,
2013-02-22 06:00:00,64.0,60.0,29.81,NNE,22,9.0,9.0,86,0.00,,,0.00,TxWx,2013-02-22 12:00:00,
2013-02-22 06:02:00,64.0,60.0,29.81,ENE,67,10.0,13.0,86,0.00,,,0.00,TxWx,2013-02-22 12:02:00,
2013-02-22 06:03:00,64.0,60.0,29.81,NNE,22,8.0,9.0,86,0.00,,,0.00,TxWx,2013-02-22 12:03:00,
2013-02-22 06:06:00,64.0,60.0,29.80,NE,45,10.0,10.0,86,0.00,,,0.00,TxWx,2013-02-22 12:06:00,
2013-02-22 06:08:00,64.0,60.0,29.81,NE,45,10.0,10.0,86,0.00,,,0.00,TxWx,2013-02-22 12:08:00,
2013-02-22 06:09:00,64.0,60.0,29.81,NE,45,9.0,9.0,86,0.00,,,0.00,TxWx,2013-02-22 12:09:00,
2013-02-22 06:12:00,64.0,60.0,29.81,NE,45,6.0,6.0,86,0.00,,,0.00,TxWx,2013-02-22 12:12:00,
2013-02-22 06:15:00,64.0,60.0,29.81,ENE,67,6.0,8.0,86,0.00,,,0.00,TxWx,2013-02-22 12:15:00,
2013-02-22 06:16:00,64.0,60.0,29.81,NNE,22,9.0,10.0,86,0.00,,,0.00,TxWx,2013-02-22 12:16:00,
2013-02-22 06:17:00,64.0,60.0,29.81,NE,45,9.0,10.0,86,0.00,,,0.00,TxWx,2013-02-22 12:17:00,
2013-02-22 06:20:00,64.0,60.0,29.81,NNE,22,6.0,6.0,86,0.00,,,0.00,TxWx,2013-02-22 12:20:00,
2013-02-22 06:22:00,64.0,60.0,29.81,ENE,67,9.0,9.0,86,0.00,,,0.00,TxWx,2013-02-22 12:22:00,
2013-02-22 06:24:00,64.0,60.0,29.81,NNE,22,8.0,8.0,86,0.00,,,0.00,TxWx,2013-02-22 12:24:00,
2013-02-22 06:25:00,64.0,60.0,29.81,ENE,67,13.0,13.0,86,0.00,,,0.00,TxWx,2013-02-22 12:25:00,
2013-02-22 06:29:00,64.0,59.0,29.81,NE,45,10.0,11.0,85,0.00,,,0.00,TxWx,2013-02-22 12:29:00,
2013-02-22 06:30:00,64.0,59.0,29.81,NE,45,11.0,11.0,85,0.00,,,0.00,TxWx,2013-02-22 12:30:00,
2013-02-22 06:34:00,64.0,59.0,29.82,NE,45,8.0,9.0,85,0.00,,,0.00,TxWx,2013-02-22 12:34:00,
2013-02-22 06:36:00,64.0,59.0,29.82,NNE,22,5.0,7.0,84,0.00,,,0.00,TxWx,2013-02-22 12:36:00,
2013-02-22 06:37:00,64.0,59.0,29.82,NE,45,7.0,7.0,85,0.00,,,0.00,TxWx,2013-02-22 12:37:00,
2013-02-22 06:39:00,64.0,59.0,29.81,NE,45,8.0,8.0,85,0.00,,,0.00,TxWx,2013-02-22 12:39:00,
2013-02-22 06:41:00,64.0,59.0,29.81,NE,45,7.0,8.0,84,0.00,,,0.00,TxWx,2013-02-22 12:41:00,
2013-02-22 06:43:00,64.0,59.0,29.81,NNE,22,7.0,7.0,85,0.00,,,0.00,TxWx,2013-02-22 12:43:00,
2013-02-22 06:45:00,64.0,59.0,29.81,ENE,67,10.0,10.0,84,0.00,,,0.00,TxWx,2013-02-22 12:45:00,
2013-02-22 06:48:00,64.0,59.0,29.82,NE,45,9.0,10.0,83,0.00,,,0.00,TxWx,2013-02-22 12:48:00,
2013-02-22 06:50:00,64.0,59.0,29.82,ENE,67,6.0,6.0,83,0.00,,,0.00,TxWx,2013-02-22 12:50:00,
2013-02-22 06:53:00,64.0,59.0,29.82,ENE,67,8.0,10.0,83,0.00,,,0.00,TxWx,2013-02-22 12:53:00,
2013-02-22 06:54:00,64.0,59.0,29.82,NE,45,10.0,10.0,83,0.00,,,0.00,TxWx,2013-02-22 12:54:00,
2013-02-22 06:56:00,65.0,59.0,29.82,NE,45,6.0,7.0,82,0.00,,,0.00,TxWx,2013-02-22 12:56:00,
2013-02-22 06:59:00,65.0,59.0,29.82,NNE,22,16.0,16.0,82,0.00,,,0.00,TxWx,2013-02-22 12:59:00,
2013-02-22 07:01:00,65.0,59.0,29.82,NE,45,5.0,5.0,81,0.00,,,0.00,TxWx,2013-02-22 13:01:00,
2013-02-22 07:04:00,65.0,58.0,29.83,NE,45,12.0,12.0,80,0.00,,,0.00,TxWx,2013-02-22 13:04:00,
2013-02-22 07:06:00,65.0,58.0,29.83,NE,45,9.0,11.0,80,0.00,,,0.00,TxWx,2013-02-22 13:06:00,
2013-02-22 07:07:00,65.0,58.0,29.83,NE,45,6.0,6.0,80,0.00,,,0.00,TxWx,2013-02-22 13:07:00,
2013-02-22 07:10:00,65.0,58.0,29.83,NE,45,7.0,8.0,79,0.00,,,0.00,TxWx,2013-02-22 13:10:00,
2013-02-22 07:12:00,65.0,58.0,29.83,NNE,22,10.0,11.0,79,0.00,,,0.00,TxWx,2013-02-22 13:12:00,
2013-02-22 07:14:00,65.0,58.0,29.83,NNE,22,8.0,9.0,79,0.00,,,0.00,TxWx,2013-02-22 13:14:00,
2013-02-22 07:16:00,65.0,58.0,29.83,NE,45,8.0,8.0,79,0.00,,,0.00,TxWx,2013-02-22 13:16:00,
2013-02-22 07:19:00,65.0,58.0,29.83,NE,45,13.0,16.0,78,0.00,,,0.00,TxWx,2013-02-22 13:19:00,
2013-02-22 07:22:00,65.0,58.0,29.83,NE,45,9.0,9.0,77,0.00,,,0.00,TxWx,2013-02-22 13:22:00,
2013-02-22 07:25:00,65.0,58.0,29.83,NE,45,6.0,8.0,77,0.00,,,0.00,TxWx,2013-02-22 13:25:00,
2013-02-22 07:26:00,65.0,58.0,29.83,North,0,6.0,8.0,77,0.00,,,0.00,TxWx,2013-02-22 13:26:00,
2013-02-22 07:27:00,65.0,58.0,29.83,ENE,67,8.0,10.0,77,0.00,,,0.00,TxWx,2013-02-22 13:27:00,
2013-02-22 07:31:00,65.0,57.0,29.83,NE,45,14.0,14.0,76,0.00,,,0.00,TxWx,2013-02-22 13:31:00,
2013-02-22 07:32:00,65.0,57.0,29.83,NE,45,11.0,11.0,76,0.00,,,0.00,TxWx,2013-02-22 13:32:00,
2013-02-22 07:33:00,65.0,57.0,29.83,ENE,67,8.0,8.0,76,0.00,,,0.00,TxWx,2013-02-22 13:33:00,
2013-02-22 07:37:00,65.0,57.0,29.83,ENE,67,7.0,8.0,76,0.00,,,0.00,TxWx,2013-02-22 13:37:00,
2013-02-22 07:38:00,65.0,57.0,29.83,ENE,67,10.0,11.0,76,0.00,,,0.00,TxWx,2013-02-22 13:38:00,
2013-02-22 07:39:00,65.0,57.0,29.83,NNE,22,11.0,11.0,76,0.00,,,0.00,TxWx,2013-02-22 13:39:00,
2013-02-22 07:44:00,65.0,56.0,29.84,ENE,67,10.0,10.0,74,0.00,,,0.00,TxWx,2013-02-22 13:44:00,
2013-02-22 07:45:00,65.0,56.0,29.84,ENE,67,10.0,12.0,73,0.00,,,0.00,TxWx,2013-02-22 13:45:00,
2013-02-22 07:50:00,65.0,56.0,29.84,NE,45,11.0,11.0,72,0.00,,,0.00,TxWx,2013-02-22 13:50:00,
2013-02-22 07:51:00,65.0,56.0,29.84,East,90,11.0,14.0,72,0.00,,,0.00,TxWx,2013-02-22 13:51:00,
2013-02-22 07:52:00,65.0,56.0,29.84,ENE,67,10.0,13.0,72,0.00,,,0.00,TxWx,2013-02-22 13:52:00,
2013-02-22 07:55:00,65.0,55.0,29.84,NE,45,12.0,13.0,71,0.00,,,0.00,TxWx,2013-02-22 13:55:00,
2013-02-22 07:56:00,65.0,55.0,29.84,NE,45,11.0,13.0,71,0.00,,,0.00,TxWx,2013-02-22 13:56:00,
2013-02-22 07:57:00,65.0,55.0,29.84,ENE,67,12.0,16.0,71,0.00,,,0.00,TxWx,2013-02-22 13:57:00,
2013-02-22 08:01:00,65.0,55.0,29.85,NE,45,11.0,11.0,71,0.00,,,0.00,TxWx,2013-02-22 14:01:00,
2013-02-22 08:02:00,65.0,55.0,29.85,ENE,67,6.0,7.0,71,0.00,,,0.00,TxWx,2013-02-22 14:02:00,
2013-02-22 08:03:00,65.0,55.0,29.85,East,90,10.0,10.0,71,0.00,,,0.00,TxWx,2013-02-22 14:03:00,
2013-02-22 08:07:00,65.0,55.0,29.85,ENE,67,11.0,11.0,70,0.00,,,0.00,TxWx,2013-02-22 14:07:00,
2013-02-22 08:08:00,65.0,55.0,29.85,East,90,10.0,11.0,70,0.00,,,0.00,TxWx,2013-02-22 14:08:00,
2013-02-22 08:12:00,66.0,56.0,29.86,NNE,22,9.0,9.0,70,0.00,,,0.00,TxWx,2013-02-22 14:12:00,
2013-02-22 08:16:00,66.0,56.0,29.86,NNE,22,8.0,8.0,69,0.00,,,0.00,TxWx,2013-02-22 14:16:00,
2013-02-22 08:18:00,66.0,55.0,29.86,NE,45,6.0,6.0,69,0.00,,,0.00,TxWx,2013-02-22 14:18:00,
2013-02-22 08:19:00,66.0,55.0,29.86,NNE,22,5.0,5.0,69,0.00,,,0.00,TxWx,2013-02-22 14:19:00,
2013-02-22 08:22:00,66.0,55.0,29.87,NE,45,7.0,8.0,67,0.00,,,0.00,TxWx,2013-02-22 14:22:00,
2013-02-22 08:24:00,66.0,55.0,29.87,NE,45,8.0,9.0,67,0.00,,,0.00,TxWx,2013-02-22 14:24:00,
2013-02-22 08:25:00,66.0,54.0,29.87,ENE,67,6.0,10.0,67,0.00,,,0.00,TxWx,2013-02-22 14:25:00,
2013-02-22 08:27:00,66.0,54.0,29.87,NE,45,9.0,9.0,66,0.00,,,0.00,TxWx,2013-02-22 14:27:00,
2013-02-22 08:30:00,67.0,54.0,29.86,ENE,67,11.0,12.0,62,0.00,,,0.00,TxWx,2013-02-22 14:30:00,
2013-02-22 08:34:00,67.0,51.0,29.87,East,90,10.0,10.0,56,0.00,,,0.00,TxWx,2013-02-22 14:34:00,
2013-02-22 08:35:00,67.0,51.0,29.87,NE,45,7.0,9.0,56,0.00,,,0.00,TxWx,2013-02-22 14:35:00,
2013-02-22 08:36:00,67.0,51.0,29.87,NNE,22,5.0,6.0,57,0.00,,,0.00,TxWx,2013-02-22 14:36:00,
2013-02-22 08:39:00,68.0,50.0,29.87,NNE,22,13.0,13.0,54,0.00,,,0.00,TxWx,2013-02-22 14:39:00,
2013-02-22 08:41:00,68.0,51.0,29.87,ENE,67,10.0,10.0,54,0.00,,,0.00,TxWx,2013-02-22 14:41:00,
2013-02-22 08:42:00,68.0,51.0,29.87,ENE,67,6.0,8.0,55,0.00,,,0.00,TxWx,2013-02-22 14:42:00,
2013-02-22 08:45:00,68.0,51.0,29.87,NE,45,8.0,10.0,56,0.00,,,0.00,TxWx,2013-02-22 14:45:00,
2013-02-22 08:47:00,68.0,51.0,29.87,NNE,22,9.0,11.0,55,0.00,,,0.00,TxWx,2013-02-22 14:47:00,
2013-02-22 08:48:00,68.0,50.0,29.88,ENE,67,12.0,14.0,53,0.00,,,0.00,TxWx,2013-02-22 14:48:00,
2013-02-22 08:51:00,68.0,50.0,29.88,East,90,12.0,12.0,53,0.00,,,0.00,TxWx,2013-02-22 14:51:00,
2013-02-22 08:53:00,68.0,50.0,29.88,ENE,67,11.0,11.0,53,0.00,,,0.00,TxWx,2013-02-22 14:53:00,
2013-02-22 08:54:00,68.0,50.0,29.88,NE,45,16.0,16.0,53,0.00,,,0.00,TxWx,2013-02-22 14:54:00,
2013-02-22 08:57:00,68.0,50.0,29.88,NE,45,11.0,12.0,54,0.00,,,0.00,TxWx,2013-02-22 14:57:00,
2013-02-22 08:58:00,67.0,50.0,29.88,ENE,67,8.0,10.0,55,0.00,,,0.00,TxWx,2013-02-22 14:58:00,
2013-02-22 09:01:00,68.0,50.0,29.88,East,90,7.0,8.0,53,0.00,,,0.00,TxWx,2013-02-22 15:01:00,
2013-02-22 09:03:00,68.0,50.0,29.88,ENE,67,8.0,8.0,52,0.00,,,0.00,TxWx,2013-02-22 15:03:00,
2013-02-22 09:04:00,68.0,50.0,29.88,ENE,67,13.0,13.0,53,0.00,,,0.00,TxWx,2013-02-22 15:04:00,
2013-02-22 09:09:00,68.0,50.0,29.88,NE,45,11.0,13.0,53,0.00,,,0.00,TxWx,2013-02-22 15:09:00,
2013-02-22 09:10:00,68.0,50.0,29.88,NE,45,7.0,7.0,53,0.00,,,0.00,TxWx,2013-02-22 15:10:00,
2013-02-22 09:11:00,68.0,49.0,29.88,NNE,22,10.0,11.0,52,0.00,,,0.00,TxWx,2013-02-22 15:11:00,
2013-02-22 09:15:00,68.0,49.0,29.88,NE,45,8.0,8.0,51,0.00,,,0.00,TxWx,2013-02-22 15:15:00,
2013-02-22 09:16:00,68.0,50.0,29.88,ENE,67,8.0,10.0,52,0.00,,,0.00,TxWx,2013-02-22 15:16:00,
2013-02-22 09:18:00,68.0,49.0,29.88,ESE,112,5.0,6.0,52,0.00,,,0.00,TxWx,2013-02-22 15:18:00,
2013-02-22 09:20:00,68.0,50.0,29.88,ENE,67,9.0,9.0,53,0.00,,,0.00,TxWx,2013-02-22 15:20:00,
2013-02-22 09:21:00,68.0,49.0,29.88,NE,45,8.0,11.0,52,0.00,,,0.00,TxWx,2013-02-22 15:21:00,
2013-02-22 09:23:00,68.0,50.0,29.89,NE,45,11.0,11.0,53,0.00,,,0.00,TxWx,2013-02-22 15:23:00,
2013-02-22 09:24:00,68.0,50.0,29.89,NE,45,11.0,12.0,52,0.00,,,0.00,TxWx,2013-02-22 15:24:00,
2013-02-22 09:26:00,68.0,51.0,29.89,NE,45,13.0,13.0,54,0.00,,,0.00,TxWx,2013-02-22 15:26:00,
2013-02-22 09:27:00,68.0,50.0,29.89,NNE,22,10.0,10.0,54,0.00,,,0.00,TxWx,2013-02-22 15:27:00,
2013-02-22 09:29:00,68.0,50.0,29.89,ENE,67,10.0,11.0,53,0.00,,,0.00,TxWx,2013-02-22 15:29:00,
2013-02-22 09:30:00,68.0,50.0,29.89,NE,45,13.0,14.0,52,0.00,,,0.00,TxWx,2013-02-22 15:30:00,
2013-02-22 09:32:00,68.0,50.0,29.89,NE,45,12.0,12.0,54,0.00,,,0.00,TxWx,2013-02-22 15:32:00,
2013-02-22 09:35:00,68.0,50.0,29.89,NE,45,12.0,14.0,53,0.00,,,0.00,TxWx,2013-02-22 15:35:00,
2013-02-22 09:36:00,68.0,50.0,29.89,NE,45,13.0,13.0,52,0.00,,,0.00,TxWx,2013-02-22 15:36:00,
2013-02-22 09:37:00,68.0,50.0,29.89,NE,45,9.0,9.0,53,0.00,,,0.00,TxWx,2013-02-22 15:37:00,
2013-02-22 09:38:00,67.0,50.0,29.90,East,90,8.0,10.0,55,0.00,,,0.00,TxWx,2013-02-22 15:38:00,
2013-02-22 09:42:00,68.0,50.0,29.90,NNE,22,6.0,7.0,53,0.00,,,0.00,TxWx,2013-02-22 15:42:00,
2013-02-22 09:43:00,68.0,51.0,29.90,NE,45,11.0,11.0,55,0.00,,,0.00,TxWx,2013-02-22 15:43:00,
2013-02-22 09:44:00,68.0,51.0,29.90,NE,45,6.0,6.0,55,0.00,,,0.00,TxWx,2013-02-22 15:44:00,
2013-02-22 09:48:00,67.0,53.0,29.90,North,0,6.0,6.0,61,0.00,,,0.00,TxWx,2013-02-22 15:48:00,
2013-02-22 09:49:00,67.0,53.0,29.90,NNE,22,9.0,9.0,61,0.00,,,0.00,TxWx,2013-02-22 15:49:00,
2013-02-22 09:51:00,67.0,53.0,29.90,NE,45,9.0,9.0,62,0.00,,,0.00,TxWx,2013-02-22 15:51:00,
2013-02-22 09:54:00,67.0,54.0,29.90,NNW,337,4.0,4.0,62,0.00,,,0.00,TxWx,2013-02-22 15:54:00,
2013-02-22 09:56:00,67.0,54.0,29.90,ENE,67,9.0,9.0,63,0.00,,,0.00,TxWx,2013-02-22 15:56:00,
2013-02-22 09:57:00,67.0,54.0,29.90,NE,45,5.0,9.0,63,0.00,,,0.00,TxWx,2013-02-22 15:57:00,
2013-02-22 09:59:00,66.0,53.0,29.90,NNE,22,6.0,9.0,64,0.00,,,0.00,TxWx,2013-02-22 15:59:00,
2013-02-22 10:02:00,66.0,54.0,29.90,NE,45,8.0,8.0,65,0.00,,,0.00,TxWx,2013-02-22 16:02:00,
2013-02-22 10:04:00,66.0,54.0,29.90,NE,45,6.0,6.0,65,0.00,,,0.00,TxWx,2013-02-22 16:04:00,
2013-02-22 10:05:00,66.0,54.0,29.90,NNE,22,9.0,10.0,65,0.00,,,0.00,TxWx,2013-02-22 16:05:00,
2013-02-22 10:07:00,66.0,54.0,29.90,NNE,22,8.0,10.0,65,0.00,,,0.00,TxWx,2013-02-22 16:07:00,
2013-02-22 10:10:00,66.0,53.0,29.90,NE,45,8.0,8.0,63,0.00,,,0.00,TxWx,2013-02-22 16:10:00,
2013-02-22 10:11:00,66.0,53.0,29.90,NE,45,6.0,6.0,64,0.00,,,0.00,TxWx,2013-02-22 16:11:00,
2013-02-22 10:12:00,66.0,53.0,29.90,NE,45,9.0,10.0,63,0.00,,,0.00,TxWx,2013-02-22 16:12:00,
2013-02-22 10:14:00,66.0,53.0,29.90,NE,45,8.0,11.0,63,0.00,,,0.00,TxWx,2013-02-22 16:14:00,
2013-02-22 10:15:00,66.0,53.0,29.90,NE,45,8.0,8.0,64,0.00,,,0.00,TxWx,2013-02-22 16:15:00,
2013-02-22 10:17:00,66.0,53.0,29.90,NE,45,10.0,10.0,64,0.00,,,0.00,TxWx,2013-02-22 16:17:00,
2013-02-22 10:18:00,66.0,53.0,29.90,NNE,22,11.0,13.0,63,0.00,,,0.00,TxWx,2013-02-22 16:18:00,
2013-02-22 10:21:00,66.0,53.0,29.90,NNW,337,7.0,7.0,63,0.00,,,0.00,TxWx,2013-02-22 16:21:00,
2013-02-22 10:23:00,66.0,52.0,29.90,NNE,22,12.0,13.0,62,0.00,,,0.00,TxWx,2013-02-22 16:23:00,
2013-02-22 10:26:00,67.0,54.0,29.90,NE,45,7.0,10.0,63,0.00,,,0.00,TxWx,2013-02-22 16:26:00,
2013-02-22 10:27:00,66.0,53.0,29.90,ENE,67,11.0,11.0,63,0.00,,,0.00,TxWx,2013-02-22 16:27:00,
2013-02-22 10:28:00,66.0,53.0,29.90,NE,45,14.0,14.0,62,0.00,,,0.00,TxWx,2013-02-22 16:28:00,
2013-02-22 10:29:00,66.0,53.0,29.90,NE,45,11.0,12.0,62,0.00,,,0.00,TxWx,2013-02-22 16:29:00,
2013-02-22 10:31:00,66.0,53.0,29.90,ENE,67,11.0,11.0,62,0.00,,,0.00,TxWx,2013-02-22 16:31:00,
2013-02-22 10:33:00,66.0,53.0,29.90,ENE,67,11.0,11.0,63,0.00,,,0.00,TxWx,2013-02-22 16:33:00,
2013-02-22 10:34:00,66.0,53.0,29.90,ENE,67,10.0,11.0,63,0.00,,,0.00,TxWx,2013-02-22 16:34:00,
2013-02-22 10:36:00,66.0,52.0,29.90,ENE,67,11.0,11.0,62,0.00,,,0.00,TxWx,2013-02-22 16:36:00,
2013-02-22 10:40:00,66.0,53.0,29.90,NNE,22,9.0,11.0,63,0.00,,,0.00,TxWx,2013-02-22 16:40:00,
2013-02-22 10:42:00,66.0,51.0,29.90,NE,45,14.0,14.0,59,0.00,,,0.00,TxWx,2013-02-22 16:42:00,
2013-02-22 10:43:00,66.0,52.0,29.90,NNE,22,8.0,11.0,60,0.00,,,0.00,TxWx,2013-02-22 16:43:00,
2013-02-22 10:45:00,66.0,52.0,29.90,NE,45,11.0,11.0,62,0.00,,,0.00,TxWx,2013-02-22 16:45:00,
2013-02-22 10:48:00,66.0,52.0,29.91,ENE,67,10.0,11.0,62,0.00,,,0.00,TxWx,2013-02-22 16:48:00,
2013-02-22 10:51:00,66.0,52.0,29.90,NE,45,13.0,14.0,62,0.00,,,0.00,TxWx,2013-02-22 16:51:00,
2013-02-22 10:53:00,66.0,53.0,29.90,North,0,8.0,8.0,63,0.00,,,0.00,TxWx,2013-02-22 16:53:00,
2013-02-22 10:54:00,66.0,53.0,29.90,ENE,67,10.0,10.0,63,0.00,,,0.00,TxWx,2013-02-22 16:54:00,
2013-02-22 10:55:00,66.0,53.0,29.90,ENE,67,10.0,10.0,63,0.00,,,0.00,TxWx,2013-02-22 16:55:00,
2013-02-22 10:57:00,66.0,53.0,29.90,NE,45,11.0,11.0,62,0.00,,,0.00,TxWx,2013-02-22 16:57:00,
2013-02-22 11:00:00,66.0,52.0,29.90,ENE,67,12.0,12.0,61,0.00,,,0.00,TxWx,2013-02-22 17:00:00,
2013-02-22 11:01:00,67.0,54.0,29.90,NE,45,12.0,13.0,63,0.00,,,0.00,TxWx,2013-02-22 17:01:00,
2013-02-22 11:02:00,67.0,53.0,29.90,East,90,14.0,14.0,62,0.00,,,0.00,TxWx,2013-02-22 17:02:00,
2013-02-22 11:03:00,67.0,52.0,29.90,ENE,67,9.0,10.0,60,0.00,,,0.00,TxWx,2013-02-22 17:03:00,
2013-02-22 11:05:00,67.0,53.0,29.90,ENE,67,5.0,6.0,61,0.00,,,0.00,TxWx,2013-02-22 17:05:00,
2013-02-22 11:07:00,67.0,54.0,29.90,East,90,8.0,9.0,63,0.00,,,0.00,TxWx,2013-02-22 17:07:00,
2013-02-22 11:08:00,67.0,54.0,29.90,East,90,11.0,13.0,63,0.00,,,0.00,TxWx,2013-02-22 17:08:00,
2013-02-22 11:10:00,67.0,53.0,29.89,NE,45,9.0,11.0,61,0.00,,,0.00,TxWx,2013-02-22 17:10:00,
2013-02-22 11:12:00,67.0,53.0,29.89,East,90,9.0,9.0,61,0.00,,,0.00,TxWx,2013-02-22 17:12:00,
2013-02-22 11:13:00,67.0,53.0,29.89,ENE,67,5.0,5.0,61,0.00,,,0.00,TxWx,2013-02-22 17:13:00,
2013-02-22 11:17:00,67.0,52.0,29.89,East,90,7.0,7.0,59,0.00,,,0.00,TxWx,2013-02-22 17:17:00,
2013-02-22 11:18:00,67.0,51.0,29.89,East,90,13.0,13.0,57,0.00,,,0.00,TxWx,2013-02-22 17:18:00,
2013-02-22 11:19:00,67.0,52.0,29.89,ENE,67,5.0,5.0,59,0.00,,,0.00,TxWx,2013-02-22 17:19:00,
2013-02-22 11:20:00,67.0,52.0,29.89,NE,45,11.0,11.0,60,0.00,,,0.00,TxWx,2013-02-22 17:20:00,
2013-02-22 11:24:00,67.0,50.0,29.89,NE,45,13.0,14.0,54,0.00,,,0.00,TxWx,2013-02-22 17:24:00,
2013-02-22 11:25:00,67.0,49.0,29.89,ENE,67,11.0,11.0,53,0.00,,,0.00,TxWx,2013-02-22 17:25:00,
2013-02-22 11:26:00,67.0,50.0,29.89,NE,45,8.0,8.0,54,0.00,,,0.00,TxWx,2013-02-22 17:26:00,
2013-02-22 11:28:00,67.0,49.0,29.89,NE,45,8.0,14.0,53,0.00,,,0.00,TxWx,2013-02-22 17:28:00,
2013-02-22 11:30:00,67.0,49.0,29.89,East,90,10.0,14.0,53,0.00,,,0.00,TxWx,2013-02-22 17:30:00,
2013-02-22 11:31:00,67.0,49.0,29.89,ESE,112,6.0,8.0,53,0.00,,,0.00,TxWx,2013-02-22 17:31:00,
2013-02-22 11:32:00,67.0,48.0,29.89,NE,45,9.0,12.0,51,0.00,,,0.00,TxWx,2013-02-22 17:32:00,
2013-02-22 11:33:00,67.0,48.0,29.89,East,90,10.0,10.0,52,0.00,,,0.00,TxWx,2013-02-22 17:33:00,
2013-02-22 11:36:00,67.0,48.0,29.89,East,90,10.0,12.0,51,0.00,,,0.00,TxWx,2013-02-22 17:36:00,
2013-02-22 11:38:00,67.0,49.0,29.89,NE,45,8.0,12.0,52,0.00,,,0.00,TxWx,2013-02-22 17:38:00,
2013-02-22 11:39:00,67.0,48.0,29.89,East,90,6.0,6.0,51,0.00,,,0.00,TxWx,2013-02-22 17:39:00,
2013-02-22 11:41:00,68.0,50.0,29.89,East,90,7.0,7.0,53,0.00,,,0.00,TxWx,2013-02-22 17:41:00,
2013-02-22 11:43:00,68.0,49.0,29.89,East,90,7.0,8.0,52,0.00,,,0.00,TxWx,2013-02-22 17:43:00,
2013-02-22 11:46:00,68.0,50.0,29.89,NE,45,6.0,6.0,52,0.00,,,0.00,TxWx,2013-02-22 17:46:00,
2013-02-22 11:47:00,68.0,49.0,29.89,ENE,67,10.0,10.0,51,0.00,,,0.00,TxWx,2013-02-22 17:47:00,
2013-02-22 11:49:00,68.0,49.0,29.88,ESE,112,8.0,10.0,51,0.00,,,0.00,TxWx,2013-02-22 17:49:00,
2013-02-22 11:52:00,68.0,49.0,29.88,NE,45,5.0,6.0,52,0.00,,,0.00,TxWx,2013-02-22 17:52:00,
2013-02-22 11:53:00,68.0,49.0,29.88,ENE,67,10.0,13.0,51,0.00,,,0.00,TxWx,2013-02-22 17:53:00,
2013-02-22 11:55:00,68.0,49.0,29.89,East,90,12.0,12.0,51,0.00,,,0.00,TxWx,2013-02-22 17:55:00,
2013-02-22 11:56:00,68.0,49.0,29.89,NE,45,14.0,14.0,51,0.00,,,0.00,TxWx,2013-02-22 17:56:00,
2013-02-22 11:59:00,68.0,49.0,29.88,SE,135,3.0,3.0,51,0.00,,,0.00,TxWx,2013-02-22 17:59:00,
2013-02-22 12:00:00,68.0,49.0,29.88,East,90,9.0,9.0,52,0.00,,,0.00,TxWx,2013-02-22 18:00:00,
2013-02-22 12:01:00,68.0,49.0,29.88,NE,45,10.0,11.0,51,0.00,,,0.00,TxWx,2013-02-22 18:01:00,
2013-02-22 12:05:00,67.0,48.0,29.89,NNE,22,13.0,14.0,51,0.00,,,0.00,TxWx,2013-02-22 18:05:00,
2013-02-22 12:07:00,67.0,49.0,29.88,ENE,67,10.0,11.0,53,0.00,,,0.00,TxWx,2013-02-22 18:07:00,
2013-02-22 12:08:00,67.0,48.0,29.88,SSE,157,6.0,9.0,50,0.00,,,0.00,TxWx,2013-02-22 18:08:00,
2013-02-22 12:11:00,68.0,49.0,29.88,NNW,337,5.0,5.0,51,0.00,,,0.00,TxWx,2013-02-22 18:11:00,
2013-02-22 12:13:00,67.0,48.0,29.88,NE,45,9.0,10.0,51,0.00,,,0.00,TxWx,2013-02-22 18:13:00,
2013-02-22 12:14:00,68.0,49.0,29.88,ENE,67,9.0,9.0,52,0.00,,,0.00,TxWx,2013-02-22 18:14:00,
2013-02-22 12:18:00,68.0,50.0,29.88,NE,45,9.0,9.0,52,0.00,,,0.00,TxWx,2013-02-22 18:18:00,
2013-02-22 12:20:00,68.0,50.0,29.88,ENE,67,5.0,6.0,53,0.00,,,0.00,TxWx,2013-02-22 18:20:00,
2013-02-22 12:21:00,68.0,50.0,29.88,ENE,67,14.0,14.0,53,0.00,,,0.00,TxWx,2013-02-22 18:21:00,
2013-02-22 12:23:00,68.0,50.0,29.88,ENE,67,10.0,10.0,53,0.00,,,0.00,TxWx,2013-02-22 18:23:00,
2013-02-22 12:25:00,68.0,49.0,29.88,ENE,67,8.0,8.0,51,0.00,,,0.00,TxWx,2013-02-22 18:25:00,
2013-02-22 12:26:00,68.0,50.0,29.88,NNW,337,7.0,9.0,52,0.00,,,0.00,TxWx,2013-02-22 18:26:00,
2013-02-22 12:27:00,68.0,49.0,29.87,ENE,67,8.0,8.0,52,0.00,,,0.00,TxWx,2013-02-22 18:27:00,
2013-02-22 12:30:00,68.0,48.0,29.87,NE,45,18.0,18.0,50,0.00,,,0.00,TxWx,2013-02-22 18:30:00,
2013-02-22 12:32:00,68.0,48.0,29.88,NE,45,9.0,9.0,50,0.00,,,0.00,TxWx,2013-02-22 18:32:00,
2013-02-22 12:33:00,68.0,49.0,29.87,ENE,67,10.0,10.0,51,0.00,,,0.00,TxWx,2013-02-22 18:33:00,
2013-02-22 12:36:00,68.0,50.0,29.87,ENE,67,5.0,6.0,54,0.00,,,0.00,TxWx,2013-02-22 18:36:00,
2013-02-22 12:37:00,68.0,50.0,29.87,NE,45,7.0,7.0,53,0.00,,,0.00,TxWx,2013-02-22 18:37:00,
2013-02-22 12:40:00,68.0,50.0,29.86,NE,45,6.0,6.0,54,0.00,,,0.00,TxWx,2013-02-22 18:40:00,
2013-02-22 12:41:00,68.0,51.0,29.86,East,90,8.0,8.0,54,0.00,,,0.00,TxWx,2013-02-22 18:41:00,
2013-02-22 12:43:00,68.0,50.0,29.86,East,90,11.0,11.0,54,0.00,,,0.00,TxWx,2013-02-22 18:43:00,
2013-02-22 12:45:00,68.0,50.0,29.86,ENE,67,7.0,8.0,52,0.00,,,0.00,TxWx,2013-02-22 18:45:00,
2013-02-22 12:46:00,68.0,50.0,29.86,NE,45,9.0,9.0,53,0.00,,,0.00,TxWx,2013-02-22 18:46:00,
2013-02-22 12:47:00,69.0,51.0,29.86,East,90,4.0,4.0,52,0.00,,,0.00,TxWx,2013-02-22 18:47:00,
2013-02-22 12:48:00,69.0,51.0,29.86,ENE,67,12.0,13.0,53,0.00,,,0.00,TxWx,2013-02-22 18:48:00,
2013-02-22 12:51:00,69.0,50.0,29.86,ENE,67,8.0,10.0,51,0.00,,,0.00,TxWx,2013-02-22 18:51:00,
2013-02-22 12:53:00,69.0,50.0,29.86,ENE,67,12.0,13.0,51,0.00,,,0.00,TxWx,2013-02-22 18:53:00,
2013-02-22 12:54:00,68.0,49.0,29.86,East,90,8.0,8.0,51,0.00,,,0.00,TxWx,2013-02-22 18:54:00,
2013-02-22 12:57:00,69.0,51.0,29.86,East,90,9.0,13.0,53,0.00,,,0.00,TxWx,2013-02-22 18:57:00,
2013-02-22 12:58:00,69.0,51.0,29.85,NE,45,8.0,8.0,53,0.00,,,0.00,TxWx,2013-02-22 18:58:00,
2013-02-22 12:59:00,68.0,50.0,29.86,NE,45,14.0,14.0,53,0.00,,,0.00,TxWx,2013-02-22 18:59:00,
2013-02-22 13:03:00,68.0,49.0,29.86,ENE,67,16.0,16.0,52,0.00,,,0.00,TxWx,2013-02-22 19:03:00,
2013-02-22 13:05:00,68.0,49.0,29.86,ENE,67,7.0,10.0,52,0.00,,,0.00,TxWx,2013-02-22 19:05:00,
2013-02-22 13:08:00,68.0,51.0,29.85,ENE,67,10.0,10.0,54,0.00,,,0.00,TxWx,2013-02-22 19:08:00,
2013-02-22 13:10:00,68.0,51.0,29.86,NE,45,10.0,11.0,55,0.00,,,0.00,TxWx,2013-02-22 19:10:00,
2013-02-22 13:12:00,68.0,52.0,29.85,NE,45,8.0,8.0,58,0.00,,,0.00,TxWx,2013-02-22 19:12:00,
2013-02-22 13:13:00,67.0,51.0,29.85,NE,45,15.0,15.0,58,0.00,,,0.00,TxWx,2013-02-22 19:13:00,
2013-02-22 13:17:00,68.0,52.0,29.85,ENE,67,11.0,11.0,56,0.00,,,0.00,TxWx,2013-02-22 19:17:00,
2013-02-22 13:18:00,68.0,52.0,29.86,NE,45,9.0,9.0,56,0.00,,,0.00,TxWx,2013-02-22 19:18:00,
2013-02-22 13:19:00,67.0,51.0,29.86,NE,45,11.0,15.0,57,0.00,,,0.00,TxWx,2013-02-22 19:19:00,
2013-02-22 13:23:00,67.0,51.0,29.86,ENE,67,8.0,11.0,57,0.00,,,0.00,TxWx,2013-02-22 19:23:00,
2013-02-22 13:24:00,68.0,51.0,29.86,NE,45,11.0,11.0,56,0.00,,,0.00,TxWx,2013-02-22 19:24:00,
2013-02-22 13:25:00,68.0,52.0,29.86,NNE,22,6.0,6.0,57,0.00,,,0.00,TxWx,2013-02-22 19:25:00,
2013-02-22 13:28:00,68.0,50.0,29.85,NE,45,7.0,10.0,54,0.00,,,0.00,TxWx,2013-02-22 19:28:00,
2013-02-22 13:30:00,68.0,52.0,29.85,NE,45,6.0,6.0,56,0.00,,,0.00,TxWx,2013-02-22 19:30:00,
2013-02-22 13:31:00,68.0,50.0,29.85,NE,45,7.0,12.0,53,0.00,,,0.00,TxWx,2013-02-22 19:31:00,
2013-02-22 13:33:00,68.0,50.0,29.85,ENE,67,8.0,10.0,52,0.00,,,0.00,TxWx,2013-02-22 19:33:00,
2013-02-22 13:35:00,68.0,51.0,29.85,ENE,67,10.0,11.0,56,0.00,,,0.00,TxWx,2013-02-22 19:35:00,
2013-02-22 13:36:00,68.0,51.0,29.85,NE,45,10.0,10.0,55,0.00,,,0.00,TxWx,2013-02-22 19:36:00,
2013-02-22 13:39:00,68.0,52.0,29.84,ESE,112,8.0,10.0,56,0.00,,,0.00,TxWx,2013-02-22 19:39:00,
2013-02-22 13:40:00,68.0,51.0,29.84,ESE,112,6.0,10.0,55,0.00,,,0.00,TxWx,2013-02-22 19:40:00,
2013-02-22 13:42:00,68.0,50.0,29.84,ENE,67,13.0,13.0,54,0.00,,,0.00,TxWx,2013-02-22 19:42:00,
2013-02-22 13:43:00,68.0,51.0,29.84,ENE,67,8.0,9.0,54,0.00,,,0.00,TxWx,2013-02-22 19:43:00,
2013-02-22 13:46:00,68.0,52.0,29.84,NE,45,10.0,10.0,57,0.00,,,0.00,TxWx,2013-02-22 19:46:00,
2013-02-22 13:49:00,68.0,51.0,29.84,East,90,8.0,8.0,55,0.00,,,0.00,TxWx,2013-02-22 19:49:00,
2013-02-22 13:51:00,68.0,52.0,29.84,ENE,67,13.0,13.0,58,0.00,,,0.00,TxWx,2013-02-22 19:51:00,
2013-02-22 13:52:00,68.0,53.0,29.84,ENE,67,8.0,8.0,59,0.00,,,0.00,TxWx,2013-02-22 19:52:00,
2013-02-22 13:53:00,68.0,53.0,29.84,East,90,8.0,8.0,59,0.00,,,0.00,TxWx,2013-02-22 19:53:00,
2013-02-22 13:56:00,68.0,53.0,29.84,ENE,67,9.0,9.0,60,0.00,,,0.00,TxWx,2013-02-22 19:56:00,
2013-02-22 13:57:00,68.0,53.0,29.83,East,90,6.0,8.0,59,0.00,,,0.00,TxWx,2013-02-22 19:57:00,
2013-02-22 13:58:00,68.0,53.0,29.83,ENE,67,5.0,5.0,59,0.00,,,0.00,TxWx,2013-02-22 19:58:00,
2013-02-22 13:59:00,69.0,53.0,29.83,ENE,67,10.0,10.0,57,0.00,,,0.00,TxWx,2013-02-22 19:59:00,
2013-02-22 14:02:00,68.0,52.0,29.84,NE,45,8.0,10.0,56,0.00,,,0.00,TxWx,2013-02-22 20:02:00,
2013-02-22 14:03:00,68.0,52.0,29.84,NE,45,11.0,11.0,57,0.00,,,0.00,TxWx,2013-02-22 20:03:00,
2013-02-22 14:04:00,68.0,51.0,29.84,NE,45,10.0,10.0,56,0.00,,,0.00,TxWx,2013-02-22 20:04:00,
2013-02-22 14:07:00,68.0,51.0,29.83,East,90,6.0,6.0,54,0.00,,,0.00,TxWx,2013-02-22 20:07:00,
2013-02-22 14:08:00,68.0,51.0,29.83,ENE,67,6.0,8.0,54,0.00,,,0.00,TxWx,2013-02-22 20:08:00,
2013-02-22 14:12:00,68.0,52.0,29.83,NE,45,10.0,11.0,57,0.00,,,0.00,TxWx,2013-02-22 20:12:00,
2013-02-22 14:15:00,67.0,51.0,29.83,NE,45,10.0,10.0,56,0.00,,,0.00,TxWx,2013-02-22 20:15:00,
2013-02-22 14:16:00,67.0,51.0,29.83,NE,45,7.0,8.0,57,0.00,,,0.00,TxWx,2013-02-22 20:16:00,
2013-02-22 14:18:00,67.0,52.0,29.83,SE,135,9.0,9.0,59,0.00,,,0.00,TxWx,2013-02-22 20:18:00,
2013-02-22 14:19:00,67.0,51.0,29.83,NE,45,7.0,10.0,57,0.00,,,0.00,TxWx,2013-02-22 20:19:00,
2013-02-22 14:21:00,67.0,52.0,29.83,NE,45,8.0,8.0,59,0.00,,,0.00,TxWx,2013-02-22 20:21:00,
2013-02-22 14:22:00,67.0,52.0,29.83,NE,45,13.0,13.0,58,0.00,,,0.00,TxWx,2013-02-22 20:22:00,
2013-02-22 14:24:00,68.0,53.0,29.83,NNE,22,6.0,6.0,59,0.00,,,0.00,TxWx,2013-02-22 20:24:00,
2013-02-22 14:27:00,68.0,52.0,29.82,NE,45,11.0,11.0,58,0.00,,,0.00,TxWx,2013-02-22 20:27:00,
2013-02-22 14:28:00,68.0,52.0,29.83,ENE,67,7.0,8.0,57,0.00,,,0.00,TxWx,2013-02-22 20:28:00,
2013-02-22 14:30:00,67.0,51.0,29.83,NE,45,11.0,11.0,57,0.00,,,0.00,TxWx,2013-02-22 20:30:00,
2013-02-22 14:33:00,67.0,52.0,29.83,NE,45,13.0,14.0,59,0.00,,,0.00,TxWx,2013-02-22 20:33:00,
2013-02-22 14:34:00,67.0,52.0,29.83,ENE,67,10.0,11.0,58,0.00,,,0.00,TxWx,2013-02-22 20:34:00,
2013-02-22 14:35:00,67.0,52.0,29.83,NE,45,8.0,10.0,59,0.00,,,0.00,TxWx,2013-02-22 20:35:00,
2013-02-22 14:36:00,67.0,52.0,29.83,NE,45,7.0,7.0,59,0.00,,,0.00,TxWx,2013-02-22 20:36:00,
2013-02-22 14:39:00,67.0,53.0,29.83,NE,45,11.0,11.0,61,0.00,,,0.00,TxWx,2013-02-22 20:39:00,
2013-02-22 14:41:00,67.0,53.0,29.83,ENE,67,8.0,10.0,61,0.00,,,0.00,TxWx,2013-02-22 20:41:00,
2013-02-22 14:42:00,67.0,53.0,29.83,NE,45,9.0,9.0,62,0.00,,,0.00,TxWx,2013-02-22 20:42:00,
2013-02-22 14:45:00,67.0,54.0,29.83,NE,45,5.0,5.0,64,0.00,,,0.00,TxWx,2013-02-22 20:45:00,
2013-02-22 14:46:00,67.0,54.0,29.83,ENE,67,7.0,7.0,64,0.00,,,0.00,TxWx,2013-02-22 20:46:00,
2013-02-22 14:47:00,67.0,54.0,29.82,East,90,6.0,8.0,63,0.00,,,0.00,TxWx,2013-02-22 20:47:00,
2013-02-22 14:50:00,67.0,53.0,29.83,NE,45,9.0,11.0,61,0.00,,,0.00,TxWx,2013-02-22 20:50:00,
2013-02-22 14:53:00,67.0,53.0,29.83,ENE,67,6.0,6.0,61,0.00,,,0.00,TxWx,2013-02-22 20:53:00,
2013-02-22 14:56:00,67.0,54.0,29.83,NE,45,11.0,13.0,63,0.00,,,0.00,TxWx,2013-02-22 20:56:00,
2013-02-22 14:58:00,67.0,54.0,29.83,NE,45,11.0,11.0,63,0.00,,,0.00,TxWx,2013-02-22 20:58:00,
2013-02-22 15:00:00,67.0,53.0,29.82,NNE,22,10.0,11.0,61,0.00,,,0.00,TxWx,2013-02-22 21:00:00,
2013-02-22 15:01:00,67.0,52.0,29.82,ENE,67,6.0,7.0,60,0.00,,,0.00,TxWx,2013-02-22 21:01:00,
2013-02-22 15:03:00,67.0,54.0,29.82,ENE,67,8.0,8.0,62,0.00,,,0.00,TxWx,2013-02-22 21:03:00,
2013-02-22 15:04:00,67.0,54.0,29.82,ENE,67,7.0,8.0,63,0.00,,,0.00,TxWx,2013-02-22 21:04:00,
2013-02-22 15:06:00,67.0,54.0,29.82,NNE,22,10.0,10.0,63,0.00,,,0.00,TxWx,2013-02-22 21:06:00,
2013-02-22 15:09:00,67.0,53.0,29.82,NE,45,13.0,13.0,62,0.00,,,0.00,TxWx,2013-02-22 21:09:00,
2013-02-22 15:10:00,67.0,53.0,29.82,NE,45,11.0,11.0,62,0.00,,,0.00,TxWx,2013-02-22 21:10:00,
2013-02-22 15:11:00,67.0,53.0,29.82,ENE,67,11.0,11.0,62,0.00,,,0.00,TxWx,2013-02-22 21:11:00,
2013-02-22 15:12:00,67.0,53.0,29.82,NE,45,11.0,11.0,62,0.00,,,0.00,TxWx,2013-02-22 21:12:00,
2013-02-22 15:14:00,67.0,52.0,29.82,NNE,22,11.0,12.0,60,0.00,,,0.00,TxWx,2013-02-22 21:14:00,
2013-02-22 15:15:00,67.0,53.0,29.82,NE,45,6.0,7.0,62,0.00,,,0.00,TxWx,2013-02-22 21:15:00,
2013-02-22 15:17:00,67.0,53.0,29.82,NE,45,8.0,9.0,61,0.00,,,0.00,TxWx,2013-02-22 21:17:00,
2013-02-22 15:19:00,67.0,53.0,29.82,ENE,67,14.0,14.0,61,0.00,,,0.00,TxWx,2013-02-22 21:19:00,
2013-02-22 15:21:00,68.0,54.0,29.82,NE,45,7.0,7.0,62,0.00,,,0.00,TxWx,2013-02-22 21:21:00,
2013-02-22 15:22:00,68.0,54.0,29.82,ENE,67,10.0,10.0,62,0.00,,,0.00,TxWx,2013-02-22 21:22:00,
2013-02-22 15:23:00,67.0,53.0,29.82,NE,45,6.0,6.0,62,0.00,,,0.00,TxWx,2013-02-22 21:23:00,
2013-02-22 15:26:00,68.0,54.0,29.82,East,90,7.0,7.0,61,0.00,,,0.00,TxWx,2013-02-22 21:26:00,
2013-02-22 15:27:00,68.0,53.0,29.81,ENE,67,12.0,12.0,58,0.00,,,0.00,TxWx,2013-02-22 21:27:00,
2013-02-22 15:29:00,68.0,52.0,29.81,NE,45,9.0,11.0,58,0.00,,,0.00,TxWx,2013-02-22 21:29:00,
2013-02-22 15:32:00,68.0,52.0,29.81,ENE,67,10.0,13.0,57,0.00,,,0.00,TxWx,2013-02-22 21:32:00,
2013-02-22 15:34:00,68.0,52.0,29.81,ENE,67,11.0,11.0,57,0.00,,,0.00,TxWx,2013-02-22 21:34:00,
2013-02-22 15:38:00,68.0,53.0,29.81,ENE,67,6.0,8.0,58,0.00,,,0.00,TxWx,2013-02-22 21:38:00,
2013-02-22 15:39:00,68.0,52.0,29.81,East,90,6.0,6.0,58,0.00,,,0.00,TxWx,2013-02-22 21:39:00,
2013-02-22 15:42:00,68.0,52.0,29.81,East,90,8.0,11.0,57,0.00,,,0.00,TxWx,2013-02-22 21:42:00,
2013-02-22 15:43:00,68.0,52.0,29.81,ENE,67,9.0,10.0,57,0.00,,,0.00,TxWx,2013-02-22 21:43:00,
2013-02-22 15:44:00,68.0,52.0,29.82,NE,45,6.0,6.0,57,0.00,,,0.00,TxWx,2013-02-22 21:44:00,
2013-02-22 15:47:00,68.0,53.0,29.81,NE,45,9.0,9.0,58,0.00,,,0.00,TxWx,2013-02-22 21:47:00,
2013-02-22 15:49:00,68.0,53.0,29.81,NNE,22,6.0,7.0,59,0.00,,,0.00,TxWx,2013-02-22 21:49:00,
2013-02-22 15:50:00,68.0,53.0,29.81,ENE,67,10.0,10.0,59,0.00,,,0.00,TxWx,2013-02-22 21:50:00,
2013-02-22 15:52:00,68.0,53.0,29.81,ENE,67,6.0,6.0,58,0.00,,,0.00,TxWx,2013-02-22 21:52:00,
2013-02-22 15:55:00,67.0,51.0,29.81,East,90,8.0,8.0,58,0.00,,,0.00,TxWx,2013-02-22 21:55:00,
2013-02-22 15:56:00,67.0,52.0,29.81,East,90,7.0,8.0,59,0.00,,,0.00,TxWx,2013-02-22 21:56:00,
2013-02-22 16:00:00,67.0,53.0,29.81,East,90,5.0,5.0,60,0.00,,,0.00,TxWx,2013-02-22 22:00:00,
2013-02-22 16:03:00,67.0,52.0,29.81,ENE,67,6.0,9.0,60,0.00,,,0.00,TxWx,2013-02-22 22:03:00,
2013-02-22 16:04:00,67.0,53.0,29.81,ESE,112,4.0,5.0,61,0.00,,,0.00,TxWx,2013-02-22 22:04:00,
2013-02-22 16:05:00,67.0,53.0,29.81,East,90,11.0,13.0,60,0.00,,,0.00,TxWx,2013-02-22 22:05:00,
2013-02-22 16:06:00,67.0,52.0,29.81,NE,45,6.0,7.0,60,0.00,,,0.00,TxWx,2013-02-22 22:06:00,
2013-02-22 16:09:00,67.0,52.0,29.81,SE,135,5.0,6.0,59,0.00,,,0.00,TxWx,2013-02-22 22:09:00,
2013-02-22 16:11:00,67.0,52.0,29.81,East,90,8.0,11.0,60,0.00,,,0.00,TxWx,2013-02-22 22:11:00,
2013-02-22 16:13:00,67.0,53.0,29.81,NNE,22,5.0,8.0,61,0.00,,,0.00,TxWx,2013-02-22 22:13:00,
2013-02-22 16:17:00,67.0,53.0,29.81,ESE,112,5.0,6.0,61,0.00,,,0.00,TxWx,2013-02-22 22:17:00,
2013-02-22 16:18:00,67.0,53.0,29.81,NNE,22,5.0,7.0,61,0.00,,,0.00,TxWx,2013-02-22 22:18:00,
2013-02-22 16:19:00,67.0,53.0,29.81,ENE,67,13.0,13.0,61,0.00,,,0.00,TxWx,2013-02-22 22:19:00,
2013-02-22 16:22:00,67.0,53.0,29.81,ENE,67,11.0,12.0,60,0.00,,,0.00,TxWx,2013-02-22 22:22:00,
2013-02-22 16:24:00,67.0,53.0,29.81,ENE,67,8.0,10.0,61,0.00,,,0.00,TxWx,2013-02-22 22:24:00,
2013-02-22 16:25:00,67.0,53.0,29.81,ESE,112,6.0,9.0,61,0.00,,,0.00,TxWx,2013-02-22 22:25:00,
2013-02-22 16:26:00,67.0,53.0,29.81,ENE,67,9.0,9.0,62,0.00,,,0.00,TxWx,2013-02-22 22:26:00,
2013-02-22 16:27:00,67.0,53.0,29.82,ENE,67,6.0,6.0,62,0.00,,,0.00,TxWx,2013-02-22 22:27:00,
2013-02-22 16:29:00,67.0,54.0,29.82,East,90,5.0,5.0,62,0.00,,,0.00,TxWx,2013-02-22 22:29:00,
2013-02-22 16:31:00,67.0,54.0,29.82,NE,45,8.0,8.0,63,0.00,,,0.00,TxWx,2013-02-22 22:31:00,
2013-02-22 16:33:00,67.0,54.0,29.82,NE,45,11.0,11.0,63,0.00,,,0.00,TxWx,2013-02-22 22:33:00,
2013-02-22 16:34:00,67.0,54.0,29.82,ENE,67,10.0,11.0,63,0.00,,,0.00,TxWx,2013-02-22 22:34:00,
2013-02-22 16:37:00,68.0,54.0,29.82,East,90,6.0,9.0,62,0.00,,,0.00,TxWx,2013-02-22 22:37:00,
2013-02-22 16:39:00,68.0,54.0,29.82,ENE,67,8.0,8.0,62,0.00,,,0.00,TxWx,2013-02-22 22:39:00,
2013-02-22 16:41:00,67.0,53.0,29.82,ESE,112,8.0,9.0,61,0.00,,,0.00,TxWx,2013-02-22 22:41:00,
2013-02-22 16:42:00,67.0,53.0,29.82,NE,45,8.0,8.0,62,0.00,,,0.00,TxWx,2013-02-22 22:42:00,
2013-02-22 16:44:00,67.0,53.0,29.82,ESE,112,7.0,8.0,61,0.00,,,0.00,TxWx,2013-02-22 22:44:00,
2013-02-22 16:48:00,67.0,54.0,29.82,East,90,7.0,7.0,62,0.00,,,0.00,TxWx,2013-02-22 22:48:00,
2013-02-22 16:50:00,67.0,54.0,29.82,East,90,10.0,10.0,62,0.00,,,0.00,TxWx,2013-02-22 22:50:00,
2013-02-22 16:52:00,68.0,54.0,29.82,ENE,67,6.0,8.0,62,0.00,,,0.00,TxWx,2013-02-22 22:52:00,
2013-02-22 16:55:00,68.0,55.0,29.81,ENE,67,6.0,6.0,63,0.00,,,0.00,TxWx,2013-02-22 22:55:00,
2013-02-22 16:58:00,68.0,54.0,29.81,East,90,10.0,10.0,61,0.00,,,0.00,TxWx,2013-02-22 22:58:00,
2013-02-22 17:01:00,67.0,53.0,29.81,ENE,67,8.0,8.0,61,0.00,,,0.00,TxWx,2013-02-22 23:01:00,
2013-02-22 17:04:00,67.0,54.0,29.81,ENE,67,5.0,6.0,64,0.00,,,0.00,TxWx,2013-02-22 23:04:00,
2013-02-22 17:05:00,67.0,54.0,29.81,NE,45,4.0,4.0,64,0.00,,,0.00,TxWx,2013-02-22 23:05:00,
2013-02-22 17:10:00,67.0,54.0,29.81,ESE,112,8.0,8.0,64,0.00,,,0.00,TxWx,2013-02-22 23:10:00,
2013-02-22 17:11:00,67.0,54.0,29.81,NNE,22,6.0,6.0,63,0.00,,,0.00,TxWx,2013-02-22 23:11:00,
2013-02-22 17:16:00,67.0,54.0,29.81,ESE,112,6.0,6.0,63,0.00,,,0.00,TxWx,2013-02-22 23:16:00,
2013-02-22 17:17:00,67.0,54.0,29.81,NNE,22,6.0,8.0,63,0.00,,,0.00,TxWx,2013-02-22 23:17:00,
2013-02-22 17:22:00,67.0,54.0,29.81,NE,45,10.0,10.0,63,0.00,,,0.00,TxWx,2013-02-22 23:22:00,
2013-02-22 17:23:00,67.0,54.0,29.82,ENE,67,6.0,8.0,62,0.00,,,0.00,TxWx,2013-02-22 23:23:00,
2013-02-22 17:25:00,67.0,54.0,29.82,ENE,67,5.0,6.0,64,0.00,,,0.00,TxWx,2013-02-22 23:25:00,
2013-02-22 17:28:00,67.0,54.0,29.82,NE,45,8.0,8.0,63,0.00,,,0.00,TxWx,2013-02-22 23:28:00,
2013-02-22 17:29:00,67.0,54.0,29.82,NE,45,9.0,10.0,63,0.00,,,0.00,TxWx,2013-02-22 23:29:00,
2013-02-22 17:30:00,67.0,54.0,29.82,NE,45,8.0,8.0,63,0.00,,,0.00,TxWx,2013-02-22 23:30:00,
2013-02-22 17:34:00,67.0,54.0,29.82,ENE,67,5.0,5.0,63,0.00,,,0.00,TxWx,2013-02-22 23:34:00,
2013-02-22 17:35:00,67.0,54.0,29.82,NE,45,3.0,3.0,63,0.00,,,0.00,TxWx,2013-02-22 23:35:00,
2013-02-22 17:39:00,67.0,54.0,29.82,East,90,6.0,6.0,64,0.00,,,0.00,TxWx,2013-02-22 23:39:00,
2013-02-22 17:40:00,67.0,54.0,29.82,NE,45,6.0,6.0,64,0.00,,,0.00,TxWx,2013-02-22 23:40:00,
2013-02-22 17:45:00,67.0,54.0,29.81,ENE,67,8.0,9.0,64,0.00,,,0.00,TxWx,2013-02-22 23:45:00,
2013-02-22 17:47:00,67.0,55.0,29.81,East,90,7.0,7.0,65,0.00,,,0.00,TxWx,2013-02-22 23:47:00,
2013-02-22 17:51:00,67.0,55.0,29.81,ENE,67,5.0,6.0,66,0.00,,,0.00,TxWx,2013-02-22 23:51:00,
2013-02-22 17:53:00,67.0,55.0,29.81,ENE,67,7.0,7.0,66,0.00,,,0.00,TxWx,2013-02-22 23:53:00,
2013-02-22 17:56:00,67.0,54.0,29.82,NE,45,8.0,10.0,64,0.00,,,0.00,TxWx,2013-02-22 23:56:00,
2013-02-22 17:57:00,67.0,54.0,29.82,ENE,67,9.0,11.0,64,0.00,,,0.00,TxWx,2013-02-22 23:57:00,
2013-02-22 17:59:00,67.0,54.0,29.82,NE,45,11.0,13.0,63,0.00,,,0.00,TxWx,2013-02-22 23:59:00,
2013-02-22 18:01:00,67.0,53.0,29.82,East,90,10.0,11.0,61,0.00,,,0.00,TxWx,2013-02-23 00:01:00,
2013-02-22 18:04:00,67.0,54.0,29.82,East,90,6.0,7.0,62,0.00,,,0.00,TxWx,2013-02-23 00:04:00,
2013-02-22 18:06:00,67.0,54.0,29.82,East,90,7.0,8.0,63,0.00,,,0.00,TxWx,2013-02-23 00:06:00,
2013-02-22 18:10:00,67.0,54.0,29.82,ENE,67,9.0,10.0,62,0.00,,,0.00,TxWx,2013-02-23 00:10:00,
2013-02-22 18:12:00,67.0,55.0,29.82,East,90,9.0,9.0,66,0.00,,,0.00,TxWx,2013-02-23 00:12:00,
2013-02-22 18:15:00,66.0,54.0,29.82,East,90,10.0,10.0,66,0.00,,,0.00,TxWx,2013-02-23 00:15:00,
2013-02-22 18:18:00,66.0,55.0,29.82,East,90,5.0,5.0,68,0.00,,,0.00,TxWx,2013-02-23 00:18:00,
2013-02-22 18:19:00,66.0,56.0,29.82,ENE,67,9.0,9.0,69,0.00,,,0.00,TxWx,2013-02-23 00:19:00,
2013-02-22 18:21:00,66.0,56.0,29.83,East,90,5.0,6.0,70,0.00,,,0.00,TxWx,2013-02-23 00:21:00,
2013-02-22 18:24:00,66.0,56.0,29.83,ENE,67,4.0,4.0,70,0.00,,,0.00,TxWx,2013-02-23 00:24:00,
2013-02-22 18:25:00,66.0,56.0,29.83,ENE,67,8.0,10.0,69,0.00,,,0.00,TxWx,2013-02-23 00:25:00,
2013-02-22 18:27:00,66.0,54.0,29.83,East,90,12.0,12.0,67,0.00,,,0.00,TxWx,2013-02-23 00:27:00,
2013-02-22 18:31:00,66.0,54.0,29.83,ENE,67,7.0,7.0,66,0.00,,,0.00,TxWx,2013-02-23 00:31:00,
2013-02-22 18:32:00,66.0,54.0,29.83,East,90,5.0,6.0,67,0.00,,,0.00,TxWx,2013-02-23 00:32:00,
2013-02-22 18:36:00,66.0,55.0,29.84,ENE,67,6.0,6.0,67,0.00,,,0.00,TxWx,2013-02-23 00:36:00,
2013-02-22 18:37:00,66.0,55.0,29.84,NE,45,3.0,3.0,67,0.00,,,0.00,TxWx,2013-02-23 00:37:00,
2013-02-22 18:39:00,66.0,55.0,29.84,East,90,3.0,5.0,67,0.00,,,0.00,TxWx,2013-02-23 00:39:00,
2013-02-22 18:41:00,66.0,54.0,29.84,ENE,67,10.0,11.0,66,0.00,,,0.00,TxWx,2013-02-23 00:41:00,
2013-02-22 18:42:00,66.0,54.0,29.85,NNE,22,9.0,9.0,66,0.00,,,0.00,TxWx,2013-02-23 00:42:00,
2013-02-22 18:44:00,66.0,54.0,29.84,NNE,22,11.0,11.0,66,0.00,,,0.00,TxWx,2013-02-23 00:44:00,
2013-02-22 18:47:00,66.0,55.0,29.85,NE,45,6.0,6.0,69,0.00,,,0.00,TxWx,2013-02-23 00:47:00,
2013-02-22 18:49:00,66.0,56.0,29.85,NE,45,8.0,8.0,70,0.00,,,0.00,TxWx,2013-02-23 00:49:00,
2013-02-22 18:51:00,66.0,56.0,29.85,ENE,67,8.0,8.0,71,0.00,,,0.00,TxWx,2013-02-23 00:51:00,
2013-02-22 18:53:00,66.0,56.0,29.85,ENE,67,11.0,11.0,70,0.00,,,0.00,TxWx,2013-02-23 00:53:00,
2013-02-22 18:55:00,66.0,55.0,29.85,NE,45,11.0,11.0,68,0.00,,,0.00,TxWx,2013-02-23 00:55:00,
2013-02-22 18:56:00,66.0,55.0,29.85,NNE,22,10.0,10.0,68,0.00,,,0.00,TxWx,2013-02-23 00:56:00,
2013-02-22 19:00:00,66.0,55.0,29.85,ENE,67,9.0,10.0,67,0.00,,,0.00,TxWx,2013-02-23 01:00:00,
2013-02-22 19:01:00,66.0,55.0,29.85,NE,45,10.0,10.0,68,0.00,,,0.00,TxWx,2013-02-23 01:01:00,
2013-02-22 19:06:00,65.0,54.0,29.85,ENE,67,7.0,8.0,68,0.00,,,0.00,TxWx,2013-02-23 01:06:00,
2013-02-22 19:07:00,65.0,54.0,29.85,ENE,67,5.0,7.0,69,0.00,,,0.00,TxWx,2013-02-23 01:07:00,
2013-02-22 19:08:00,65.0,54.0,29.85,NE,45,8.0,10.0,69,0.00,,,0.00,TxWx,2013-02-23 01:08:00,
2013-02-22 19:11:00,65.0,54.0,29.85,East,90,8.0,8.0,68,0.00,,,0.00,TxWx,2013-02-23 01:11:00,
2013-02-22 19:13:00,65.0,54.0,29.85,NE,45,7.0,8.0,68,0.00,,,0.00,TxWx,2013-02-23 01:13:00,
2013-02-22 19:14:00,65.0,54.0,29.85,NNE,22,5.0,6.0,69,0.00,,,0.00,TxWx,2013-02-23 01:14:00,
2013-02-22 19:18:00,65.0,54.0,29.86,ENE,67,13.0,13.0,69,0.00,,,0.00,TxWx,2013-02-23 01:18:00,
2013-02-22 19:19:00,65.0,55.0,29.86,NE,45,11.0,11.0,70,0.00,,,0.00,TxWx,2013-02-23 01:19:00,
2013-02-22 19:20:00,65.0,55.0,29.86,East,90,7.0,7.0,71,0.00,,,0.00,TxWx,2013-02-23 01:20:00,
2013-02-22 19:23:00,65.0,56.0,29.86,NE,45,12.0,12.0,73,0.00,,,0.00,TxWx,2013-02-23 01:23:00,
2013-02-22 19:24:00,65.0,56.0,29.86,ENE,67,11.0,11.0,72,0.00,,,0.00,TxWx,2013-02-23 01:24:00,
2013-02-22 19:28:00,65.0,56.0,29.86,ENE,67,9.0,9.0,72,0.00,,,0.00,TxWx,2013-02-23 01:28:00,
2013-02-22 19:29:00,65.0,56.0,29.86,NNE,22,11.0,11.0,72,0.00,,,0.00,TxWx,2013-02-23 01:29:00,
2013-02-22 19:33:00,65.0,55.0,29.86,ENE,67,8.0,8.0,71,0.00,,,0.00,TxWx,2013-02-23 01:33:00,
2013-02-22 19:34:00,65.0,55.0,29.86,NE,45,7.0,7.0,71,0.00,,,0.00,TxWx,2013-02-23 01:34:00,
2013-02-22 19:35:00,65.0,55.0,29.86,NE,45,9.0,11.0,71,0.00,,,0.00,TxWx,2013-02-23 01:35:00,
2013-02-22 19:39:00,65.0,55.0,29.86,ENE,67,5.0,5.0,71,0.00,,,0.00,TxWx,2013-02-23 01:39:00,
2013-02-22 19:40:00,65.0,55.0,29.86,ENE,67,8.0,11.0,71,0.00,,,0.00,TxWx,2013-02-23 01:40:00,
2013-02-22 19:41:00,65.0,55.0,29.86,ENE,67,10.0,10.0,71,0.00,,,0.00,TxWx,2013-02-23 01:41:00,
2013-02-22 19:44:00,65.0,55.0,29.86,ENE,67,8.0,8.0,71,0.00,,,0.00,TxWx,2013-02-23 01:44:00,
2013-02-22 19:46:00,65.0,55.0,29.86,NNE,22,10.0,12.0,71,0.00,,,0.00,TxWx,2013-02-23 01:46:00,
2013-02-22 19:47:00,65.0,55.0,29.87,NE,45,10.0,10.0,71,0.00,,,0.00,TxWx,2013-02-23 01:47:00,
2013-02-22 19:50:00,65.0,55.0,29.87,NE,45,6.0,8.0,71,0.00,,,0.00,TxWx,2013-02-23 01:50:00,
2013-02-22 19:51:00,65.0,55.0,29.87,ENE,67,8.0,8.0,71,0.00,,,0.00,TxWx,2013-02-23 01:51:00,
2013-02-22 19:52:00,65.0,55.0,29.87,NE,45,8.0,9.0,71,0.00,,,0.00,TxWx,2013-02-23 01:52:00,
2013-02-22 19:56:00,65.0,55.0,29.87,East,90,6.0,8.0,70,0.00,,,0.00,TxWx,2013-02-23 01:56:00,
2013-02-22 19:57:00,65.0,55.0,29.87,ENE,67,8.0,8.0,70,0.00,,,0.00,TxWx,2013-02-23 01:57:00,
2013-02-22 20:01:00,65.0,55.0,29.87,NE,45,6.0,6.0,71,0.00,,,0.00,TxWx,2013-02-23 02:01:00,
2013-02-22 20:02:00,65.0,55.0,29.87,NE,45,11.0,11.0,71,0.00,,,0.00,TxWx,2013-02-23 02:02:00,
2013-02-22 20:06:00,65.0,56.0,29.87,ENE,67,8.0,8.0,72,0.00,,,0.00,TxWx,2013-02-23 02:06:00,
2013-02-22 20:07:00,65.0,56.0,29.87,ESE,112,9.0,10.0,72,0.00,,,0.00,TxWx,2013-02-23 02:07:00,
2013-02-22 20:12:00,65.0,56.0,29.87,NNE,22,6.0,7.0,74,0.00,,,0.00,TxWx,2013-02-23 02:12:00,
2013-02-22 20:14:00,65.0,56.0,29.87,ENE,67,10.0,11.0,74,0.00,,,0.00,TxWx,2013-02-23 02:14:00,
2013-02-22 20:17:00,65.0,57.0,29.88,NE,45,7.0,7.0,75,0.00,,,0.00,TxWx,2013-02-23 02:17:00,
2013-02-22 20:18:00,64.0,55.0,29.88,NE,45,10.0,11.0,74,0.00,,,0.00,TxWx,2013-02-23 02:18:00,
2013-02-22 20:19:00,64.0,55.0,29.88,NNE,22,6.0,8.0,74,0.00,,,0.00,TxWx,2013-02-23 02:19:00,
2013-02-22 20:23:00,64.0,55.0,29.88,ENE,67,10.0,10.0,72,0.00,,,0.00,TxWx,2013-02-23 02:23:00,
2013-02-22 20:25:00,64.0,55.0,29.88,NE,45,13.0,14.0,72,0.00,,,0.00,TxWx,2013-02-23 02:25:00,
2013-02-22 20:28:00,64.0,55.0,29.87,NE,45,9.0,9.0,72,0.00,,,0.00,TxWx,2013-02-23 02:28:00,
2013-02-22 20:29:00,64.0,55.0,29.87,NE,45,11.0,11.0,72,0.00,,,0.00,TxWx,2013-02-23 02:29:00,
2013-02-22 20:30:00,64.0,54.0,29.87,East,90,8.0,8.0,71,0.00,,,0.00,TxWx,2013-02-23 02:30:00,
2013-02-22 20:34:00,64.0,55.0,29.87,NE,45,10.0,11.0,73,0.00,,,0.00,TxWx,2013-02-23 02:34:00,
2013-02-22 20:35:00,64.0,55.0,29.88,NNE,22,8.0,10.0,73,0.00,,,0.00,TxWx,2013-02-23 02:35:00,
2013-02-22 20:36:00,64.0,55.0,29.88,ENE,67,11.0,12.0,72,0.00,,,0.00,TxWx,2013-02-23 02:36:00,
2013-02-22 20:41:00,64.0,54.0,29.88,NE,45,14.0,16.0,71,0.00,,,0.00,TxWx,2013-02-23 02:41:00,
2013-02-22 20:42:00,64.0,55.0,29.88,ENE,67,10.0,10.0,73,0.00,,,0.00,TxWx,2013-02-23 02:42:00,
2013-02-22 20:46:00,64.0,55.0,29.88,ESE,112,10.0,12.0,72,0.00,,,0.00,TxWx,2013-02-23 02:46:00,
2013-02-22 20:48:00,64.0,55.0,29.88,NE,45,9.0,9.0,73,0.00,,,0.00,TxWx,2013-02-23 02:48:00,
2013-02-22 20:52:00,64.0,54.0,29.88,NNE,22,10.0,11.0,71,0.00,,,0.00,TxWx,2013-02-23 02:52:00,
2013-02-22 20:53:00,64.0,54.0,29.88,East,90,12.0,12.0,71,0.00,,,0.00,TxWx,2013-02-23 02:53:00,
2013-02-22 20:54:00,64.0,54.0,29.88,NNE,22,13.0,14.0,71,0.00,,,0.00,TxWx,2013-02-23 02:54:00,
2013-02-22 20:57:00,64.0,54.0,29.88,ENE,67,8.0,9.0,70,0.00,,,0.00,TxWx,2013-02-23 02:57:00,
2013-02-22 20:59:00,64.0,54.0,29.88,ENE,67,16.0,18.0,70,0.00,,,0.00,TxWx,2013-02-23 02:59:00,
2013-02-22 21:00:00,64.0,54.0,29.88,NE,45,13.0,13.0,70,0.00,,,0.00,TxWx,2013-02-23 03:00:00,
2013-02-22 21:04:00,63.0,53.0,29.88,NE,45,13.0,13.0,69,0.00,,,0.00,TxWx,2013-02-23 03:04:00,
2013-02-22 21:05:00,64.0,54.0,29.89,ENE,67,12.0,12.0,70,0.00,,,0.00,TxWx,2013-02-23 03:05:00,
2013-02-22 21:06:00,63.0,53.0,29.89,ENE,67,19.0,19.0,70,0.00,,,0.00,TxWx,2013-02-23 03:06:00,
2013-02-22 21:10:00,63.0,53.0,29.89,ENE,67,5.0,5.0,70,0.00,,,0.00,TxWx,2013-02-23 03:10:00,
2013-02-22 21:11:00,63.0,53.0,29.88,NE,45,13.0,16.0,71,0.00,,,0.00,TxWx,2013-02-23 03:11:00,
2013-02-22 21:12:00,63.0,53.0,29.88,NE,45,10.0,10.0,71,0.00,,,0.00,TxWx,2013-02-23 03:12:00,
2013-02-22 21:16:00,63.0,53.0,29.88,East,90,11.0,12.0,71,0.00,,,0.00,TxWx,2013-02-23 03:16:00,
2013-02-22 21:17:00,63.0,53.0,29.88,NE,45,6.0,7.0,71,0.00,,,0.00,TxWx,2013-02-23 03:17:00,
2013-02-22 21:18:00,63.0,53.0,29.88,ENE,67,10.0,11.0,71,0.00,,,0.00,TxWx,2013-02-23 03:18:00,
2013-02-22 21:21:00,63.0,53.0,29.89,ENE,67,11.0,11.0,71,0.00,,,0.00,TxWx,2013-02-23 03:21:00,
2013-02-22 21:22:00,63.0,53.0,29.89,East,90,14.0,14.0,71,0.00,,,0.00,TxWx,2013-02-23 03:22:00,
2013-02-22 21:23:00,63.0,53.0,29.89,ENE,67,18.0,18.0,71,0.00,,,0.00,TxWx,2013-02-23 03:23:00,
2013-02-22 21:26:00,63.0,54.0,29.89,ENE,67,12.0,12.0,73,0.00,,,0.00,TxWx,2013-02-23 03:26:00,
2013-02-22 21:28:00,63.0,54.0,29.89,East,90,11.0,11.0,74,0.00,,,0.00,TxWx,2013-02-23 03:28:00,
2013-02-22 21:32:00,63.0,53.0,29.89,ENE,67,15.0,16.0,71,0.00,,,0.00,TxWx,2013-02-23 03:32:00,
2013-02-22 21:33:00,63.0,53.0,29.89,ENE,67,16.0,18.0,71,0.00,,,0.00,TxWx,2013-02-23 03:33:00,
2013-02-22 21:37:00,63.0,54.0,29.89,NE,45,11.0,11.0,72,0.00,,,0.00,TxWx,2013-02-23 03:37:00,
2013-02-22 21:40:00,63.0,53.0,29.89,NE,45,9.0,10.0,71,0.00,,,0.00,TxWx,2013-02-23 03:40:00,
2013-02-22 21:43:00,63.0,53.0,29.89,NE,45,16.0,16.0,70,0.00,,,0.00,TxWx,2013-02-23 03:43:00,
2013-02-22 21:46:00,63.0,53.0,29.89,NNE,22,8.0,11.0,71,0.00,,,0.00,TxWx,2013-02-23 03:46:00,
2013-02-22 21:48:00,62.0,52.0,29.89,NE,45,18.0,18.0,71,0.00,,,0.00,TxWx,2013-02-23 03:48:00,
2013-02-22 21:49:00,63.0,54.0,29.89,ENE,67,10.0,11.0,73,0.00,,,0.00,TxWx,2013-02-23 03:49:00,
2013-02-22 21:51:00,63.0,54.0,29.89,NNE,22,9.0,9.0,72,0.00,,,0.00,TxWx,2013-02-23 03:51:00,
2013-02-22 21:55:00,62.0,53.0,29.90,NW,315,8.0,11.0,72,0.00,,,0.00,TxWx,2013-02-23 03:55:00,
2013-02-22 21:56:00,62.0,53.0,29.90,NNE,22,9.0,9.0,72,0.00,,,0.00,TxWx,2013-02-23 03:56:00,
2013-02-22 21:57:00,63.0,54.0,29.90,NNE,22,10.0,10.0,73,0.00,,,0.00,TxWx,2013-02-23 03:57:00,
2013-02-22 21:59:00,62.0,52.0,29.91,NE,45,10.0,10.0,71,0.00,,,0.00,TxWx,2013-02-23 03:59:00,
2013-02-22 22:00:00,61.0,51.0,29.91,NE,45,13.0,14.0,70,0.00,,,0.00,TxWx,2013-02-23 04:00:00,
2013-02-22 22:01:00,62.0,53.0,29.90,ENE,67,15.0,18.0,72,0.00,,,0.00,TxWx,2013-02-23 04:01:00,
2013-02-22 22:02:00,62.0,53.0,29.90,NE,45,10.0,10.0,72,0.00,,,0.00,TxWx,2013-02-23 04:02:00,
2013-02-22 22:03:00,61.0,51.0,29.91,NNE,22,9.0,10.0,70,0.00,,,0.00,TxWx,2013-02-23 04:03:00,
2013-02-22 22:04:00,61.0,51.0,29.91,NNE,22,14.0,16.0,69,0.00,,,0.00,TxWx,2013-02-23 04:04:00,
2013-02-22 22:05:00,61.0,51.0,29.91,East,90,12.0,12.0,70,0.00,,,0.00,TxWx,2013-02-23 04:05:00,
2013-02-22 22:06:00,61.0,51.0,29.91,North,0,8.0,10.0,70,0.00,,,0.00,TxWx,2013-02-23 04:06:00,
2013-02-22 22:07:00,61.0,51.0,29.91,NE,45,10.0,10.0,69,0.00,,,0.00,TxWx,2013-02-23 04:07:00,
2013-02-22 22:08:00,62.0,53.0,29.90,NNE,22,8.0,9.0,73,0.00,,,0.00,TxWx,2013-02-23 04:08:00,
2013-02-22 22:09:00,62.0,53.0,29.90,NE,45,19.0,19.0,73,0.00,,,0.00,TxWx,2013-02-23 04:09:00,
2013-02-22 22:10:00,61.0,51.0,29.91,ENE,67,12.0,12.0,69,0.00,,,0.00,TxWx,2013-02-23 04:10:00,
2013-02-22 22:11:00,61.0,51.0,29.91,NNE,22,11.0,11.0,70,0.00,,,0.00,TxWx,2013-02-23 04:11:00,
2013-02-22 22:12:00,61.0,51.0,29.91,NE,45,13.0,13.0,69,0.00,,,0.00,TxWx,2013-02-23 04:12:00,
2013-02-22 22:13:00,62.0,53.0,29.90,NNE,22,10.0,10.0,73,0.00,,,0.00,TxWx,2013-02-23 04:13:00,
2013-02-22 22:14:00,62.0,53.0,29.90,NE,45,13.0,16.0,72,0.00,,,0.00,TxWx,2013-02-23 04:14:00,
2013-02-22 22:15:00,61.0,51.0,29.90,NNE,22,11.0,12.0,69,0.00,,,0.00,TxWx,2013-02-23 04:15:00,
2013-02-22 22:16:00,61.0,51.0,29.90,NNE,22,14.0,14.0,70,0.00,,,0.00,TxWx,2013-02-23 04:16:00,
2013-02-22 22:17:00,61.0,51.0,29.90,NNE,22,16.0,16.0,70,0.00,,,0.00,TxWx,2013-02-23 04:17:00,
2013-02-22 22:18:00,61.0,51.0,29.90,NE,45,12.0,12.0,70,0.00,,,0.00,TxWx,2013-02-23 04:18:00,
2013-02-22 22:19:00,62.0,53.0,29.90,NE,45,19.0,21.0,72,0.00,,,0.00,TxWx,2013-02-23 04:19:00,
2013-02-22 22:20:00,61.0,51.0,29.90,NE,45,11.0,11.0,69,0.00,,,0.00,TxWx,2013-02-23 04:20:00,
2013-02-22 22:21:00,61.0,51.0,29.90,North,0,11.0,13.0,70,0.00,,,0.00,TxWx,2013-02-23 04:21:00,
2013-02-22 22:22:00,61.0,52.0,29.90,ENE,67,14.0,14.0,71,0.00,,,0.00,TxWx,2013-02-23 04:22:00,
2013-02-22 22:23:00,61.0,51.0,29.90,NNE,22,13.0,15.0,71,0.00,,,0.00,TxWx,2013-02-23 04:23:00,
2013-02-22 22:24:00,62.0,53.0,29.90,NE,45,12.0,13.0,73,0.00,,,0.00,TxWx,2013-02-23 04:24:00,
2013-02-22 22:25:00,62.0,53.0,29.90,NE,45,18.0,18.0,72,0.00,,,0.00,TxWx,2013-02-23 04:25:00,
2013-02-22 22:26:00,61.0,51.0,29.91,NNE,22,14.0,16.0,70,0.00,,,0.00,TxWx,2013-02-23 04:26:00,
2013-02-22 22:27:00,61.0,51.0,29.90,NE,45,9.0,10.0,71,0.00,,,0.00,TxWx,2013-02-23 04:27:00,
2013-02-22 22:28:00,61.0,52.0,29.90,NE,45,8.0,8.0,71,0.00,,,0.00,TxWx,2013-02-23 04:28:00,
2013-02-22 22:29:00,62.0,52.0,29.90,NE,45,14.0,14.0,71,0.00,,,0.00,TxWx,2013-02-23 04:29:00,
2013-02-22 22:30:00,62.0,52.0,29.90,NE,45,17.0,17.0,70,0.00,,,0.00,TxWx,2013-02-23 04:30:00,
2013-02-22 22:31:00,62.0,52.0,29.90,NE,45,19.0,19.0,71,0.00,,,0.00,TxWx,2013-02-23 04:31:00,
2013-02-22 22:35:00,62.0,53.0,29.90,NE,45,14.0,15.0,72,0.00,,,0.00,TxWx,2013-02-23 04:35:00,
2013-02-22 22:36:00,62.0,53.0,29.90,ENE,67,7.0,9.0,73,0.00,,,0.00,TxWx,2013-02-23 04:36:00,
2013-02-22 22:37:00,62.0,53.0,29.90,ENE,67,11.0,11.0,73,0.00,,,0.00,TxWx,2013-02-23 04:37:00,
2013-02-22 22:41:00,62.0,52.0,29.90,ENE,67,16.0,18.0,71,0.00,,,0.00,TxWx,2013-02-23 04:41:00,
2013-02-22 22:42:00,62.0,52.0,29.90,ENE,67,8.0,10.0,71,0.00,,,0.00,TxWx,2013-02-23 04:42:00,
2013-02-22 22:47:00,62.0,52.0,29.91,North,0,18.0,18.0,70,0.00,,,0.00,TxWx,2013-02-23 04:47:00,
2013-02-22 22:52:00,62.0,52.0,29.91,NNE,22,8.0,8.0,70,0.00,,,0.00,TxWx,2013-02-23 04:52:00,
2013-02-22 22:54:00,62.0,52.0,29.91,ENE,67,12.0,12.0,69,0.00,,,0.00,TxWx,2013-02-23 04:54:00,
2013-02-22 22:57:00,62.0,52.0,29.91,NNE,22,11.0,12.0,70,0.00,,,0.00,TxWx,2013-02-23 04:57:00,
2013-02-22 22:59:00,62.0,52.0,29.91,NE,45,12.0,13.0,71,0.00,,,0.00,TxWx,2013-02-23 04:59:00,
2013-02-22 23:27:00,61.0,51.0,29.90,NNE,22,15.0,15.0,70,0.00,,,0.00,TxWx,2013-02-23 05:27:00,
2013-02-22 23:28:00,61.0,52.0,29.90,NNE,22,5.0,5.0,71,0.00,,,0.00,TxWx,2013-02-23 05:28:00,
2013-02-22 23:30:00,61.0,51.0,29.91,NNE,22,12.0,13.0,70,0.00,,,0.00,TxWx,2013-02-23 05:30:00,
2013-02-22 23:33:00,61.0,51.0,29.91,NE,45,11.0,13.0,70,0.00,,,0.00,TxWx,2013-02-23 05:33:00,
2013-02-22 23:34:00,60.0,50.0,29.91,North,0,11.0,11.0,69,0.00,,,0.00,TxWx,2013-02-23 05:34:00,
2013-02-22 23:35:00,61.0,51.0,29.91,North,0,13.0,15.0,71,0.00,,,0.00,TxWx,2013-02-23 05:35:00,
2013-02-22 23:38:00,60.0,50.0,29.91,NNE,22,15.0,15.0,69,0.00,,,0.00,TxWx,2013-02-23 05:38:00,
2013-02-22 23:39:00,60.0,50.0,29.91,NNE,22,14.0,14.0,69,0.00,,,0.00,TxWx,2013-02-23 05:39:00,
2013-02-22 23:40:00,60.0,50.0,29.91,NNE,22,14.0,16.0,70,0.00,,,0.00,TxWx,2013-02-23 05:40:00,
2013-02-22 23:42:00,60.0,51.0,29.90,NE,45,8.0,15.0,71,0.00,,,0.00,TxWx,2013-02-23 05:42:00,
2013-02-22 23:44:00,60.0,50.0,29.90,NNE,22,19.0,19.0,71,0.00,,,0.00,TxWx,2013-02-23 05:44:00,
2013-02-22 23:45:00,60.0,51.0,29.90,NE,45,17.0,18.0,71,0.00,,,0.00,TxWx,2013-02-23 05:45:00,
2013-02-22 23:47:00,60.0,50.0,29.90,NNE,22,16.0,16.0,70,0.00,,,0.00,TxWx,2013-02-23 05:47:00,
2013-02-22 23:48:00,60.0,50.0,29.90,NNE,22,17.0,17.0,70,0.00,,,0.00,TxWx,2013-02-23 05:48:00,
2013-02-22 23:50:00,60.0,51.0,29.90,NNE,22,13.0,13.0,71,0.00,,,0.00,TxWx,2013-02-23 05:50:00,
2013-02-22 23:53:00,60.0,51.0,29.90,NNE,22,12.0,13.0,72,0.00,,,0.00,TxWx,2013-02-23 05:53:00,
2013-02-22 23:55:00,60.0,50.0,29.90,North,0,11.0,11.0,71,0.00,,,0.00,TxWx,2013-02-23 05:55:00,
2013-02-22 23:58:00,60.0,50.0,29.90,NE,45,13.0,16.0,70,0.00,,,0.00,TxWx,2013-02-23 05:58:00,